                ,  0.300,  0.400,  0.500,  0.600,  0.700,  0.800,  0.900,  1.000,  1.100,  1.200,  1.300,  1.400,  1.500,  1.600,  1.700,  1.800,  1.900,  2.000,  2.100,  2.200,  2.300,  2.400,  2.500,  2.600,  2.700,  2.800,  2.900,  3.000,  3.100,  3.200,  3.300,  3.400,  3.500,  3.600,  3.700,  3.800,  3.900,  4.000,  4.100,  4.200,  4.300,  4.400,  4.500,  4.600,  4.700,  4.800,  4.900,  5.000,  5.100,  5.200,  5.300,  5.400,  5.500,  5.600,  5.700,  5.800,  5.900,  6.000
1993/08/07 00:00,  999.0,  999.0,    0.1,    0.4,    0.6,    0.5,    0.7,    0.7,    0.1,    0.2,   -0.1,   -0.0,  999.0,   -0.1,   -0.0,  999.0,    0.1,    0.1,  999.0,  999.0,    0.1,  999.0,  999.0,  999.0,   -0.0,  999.0,   -0.1,   -0.0,  999.0,  999.0,  999.0,   -0.5,  999.0,  999.0,  999.0,  999.0,  999.0,  999.0,   -0.3,   -0.6,   -1.0,  999.0,  999.0,  999.0,  999.0,  999.0,  999.0,   -0.6,  999.0,  999.0,  999.0,  999.0,  999.0,  999.0,  999.0,  999.0,  999.0,  999.0
1993/08/07 00:10,    0.2,    0.4,    0.3,    0.4,    0.4,    0.2,    0.3,    0.2,   -0.0,    0.0,   -0.0,   -0.0,    0.0,   -0.2,   -0.2,   -0.2,   -0.1,   -0.1,    0.1,   -0.1,   -0.3,    0.0,  999.0,    0.4,    0.2,    0.2,    0.1,    0.2,   -0.1,    0.3,    0.3,    0.9,    0.7,  999.0,  999.0,  999.0,  999.0,  999.0,  999.0,  999.0,  999.0,    0.1,  999.0,  999.0,  999.0,  999.0,  999.0,    0.0,  999.0,  999.0,  999.0,  999.0,  999.0,  999.0,  999.0,  999.0,  999.0,  999.0
1993/08/07 00:20,   -0.1,    0.0,   -0.1,   -0.2,    0.0,    0.0,    0.1,   -0.1,    0.0,   -0.2,   -0.0,   -0.0,   -0.1,   -0.2,   -0.0,   -0.1,   -0.0,   -0.1,    0.0,    0.1,    0.1,    0.1,   -0.3,   -0.1,    0.1,    0.5,    0.4,    0.4,    0.5,    0.3,    0.3,   -0.1,    0.1,    0.0,    0.4,    0.0,    0.5,  999.0,  999.0,  999.0,  999.0,  999.0,  999.0,  999.0,  999.0,  999.0,   -0.1,  999.0,  999.0,  999.0,  999.0,  999.0,  999.0,  999.0,  999.0,   -0.7,  999.0,  999.0
1993/08/07 00:30,    0.2,    0.3,    0.4,    0.4,   -0.0,   -0.0,    0.0,   -0.2,   -0.5,   -0.5,   -0.3,   -0.3,   -0.2,   -0.2,   -0.4,   -0.3,   -0.2,   -0.4,   -0.1,   -0.2,   -0.2,   -0.3,   -0.5,   -0.6,   -0.5,   -0.8,   -0.5,   -0.2,   -0.0,   -0.1,    0.0,    0.0,    0.2,  999.0,  999.0,  999.0,  999.0,    0.3,  999.0,  999.0,  999.0,  999.0,  999.0,    0.5,  999.0,  999.0,  999.0,  999.0,  999.0,  999.0,  999.0,    0.6,  999.0,  999.0,  999.0,  999.0,  999.0,  999.0
1993/08/07 00:40,    0.0,    0.3,    0.2,    0.5,    0.7,    0.2,    0.2,    0.2,    0.3,    0.2,    0.1,   -0.1,   -0.2,   -0.2,   -0.3,   -0.2,  999.0,   -0.3,   -0.4,   -0.3,   -0.3,   -0.4,   -0.6,   -0.6,   -0.6,   -0.3,   -0.2,   -0.1,   -0.1,   -0.1,   -0.2,   -0.1,   -0.3,   -0.3,   -0.1,  999.0,  999.0,  999.0,  999.0,  999.0,  999.0,  999.0,  999.0,  999.0,   -0.6,   -0.2,   -0.3,  999.0,  999.0,  999.0,  999.0,  999.0,  999.0,  999.0,  999.0,  999.0,  999.0,  999.0
1993/08/07 00:50,   -0.0,    0.2,    0.2,    0.1,    0.1,    0.1,   -0.6,   -0.6,   -0.4,   -0.2,   -0.1,   -0.1,   -0.1,    0.0,   -0.2,   -0.2,   -0.4,   -0.3,   -0.3,   -0.2,    0.1,    0.1,    0.2,   -0.2,    0.2,  999.0,  999.0,    0.2,    0.1,   -0.2,  999.0,   -0.3,  999.0,   -0.4,   -0.1,    0.1,  999.0,  999.0,  999.0,  999.0,  999.0,  999.0,   -0.5,   -0.3,  999.0,   -0.1,   -0.2,    0.6,  999.0,  999.0,  999.0,  999.0,  999.0,  999.0,  999.0,  999.0,  999.0,   -0.8
1993/08/07 01:00,    0.2,    0.0,    0.0,    0.2,    0.5,    0.2,   -0.4,   -0.1,    0.0,    0.1,    0.1,    0.1,    0.2,    0.1,    0.0,    0.0,    0.0,   -0.0,   -0.1,   -0.3,   -0.3,   -0.6,   -0.6,   -0.6,  999.0,   -0.2,   -0.1,   -0.1,    0.0,    0.1,   -0.1,    0.0,  999.0,  999.0,    0.1,   -0.1,   -0.0,  999.0,  999.0,  999.0,  999.0,  999.0,  999.0,   -0.1,   -0.7,    0.2,   -0.3,  999.0,  999.0,  999.0,  999.0,  999.0,  999.0,   -0.1,  999.0,  999.0,  999.0,  999.0
1993/08/07 01:10,   -0.1,    0.2,    0.2,    0.2,    0.3,    0.2,   -0.0,    0.1,    0.2,   -0.1,    0.1,    0.1,    0.0,    0.2,    0.2,    0.1,    0.1,    0.0,   -0.1,   -0.4,   -0.2,   -0.4,   -0.5,    0.1,  999.0,    0.1,    0.0,   -0.1,    0.0,   -0.2,  999.0,  999.0,  999.0,  999.0,   -0.3,   -0.1,   -0.0,   -1.2,  999.0,  999.0,  999.0,  999.0,  999.0,  999.0,    0.0,    0.4,   -0.0,    0.1,  999.0,  999.0,  999.0,  999.0,  999.0,  999.0,  999.0,  999.0,  999.0,  999.0
1993/08/07 01:20,   -0.1,   -0.0,   -0.1,    1.0,    0.0,   -0.1,   -0.0,    0.7,   -0.0,   -0.3,   -0.1,   -0.0,    0.1,    0.0,   -0.0,   -0.0,   -0.0,   -0.1,   -0.5,   -0.3,   -0.3,   -0.4,   -0.2,   -0.5,  999.0,    0.2,    0.2,    0.3,    0.5,    0.3,  999.0,  999.0,    0.4,    0.4,    0.3,    0.5,  999.0,    0.2,    0.1,  999.0,  999.0,  999.0,  999.0,  999.0,  999.0,  999.0,    0.2,    0.1,  999.0,  999.0,  999.0,  999.0,  999.0,  999.0,    0.4,  999.0,  999.0,    0.4
1993/08/07 01:30,    0.1,    0.1,    0.1,    0.0,    0.3,    0.1,   -0.0,    0.1,   -0.2,   -0.3,    0.1,   -0.2,    0.1,    0.0,    0.1,   -0.1,   -0.0,    0.3,  999.0,   -0.0,   -0.3,   -0.2,   -0.4,  999.0,   -0.4,   -0.4,    0.1,   -0.0,    0.0,   -0.2,   -0.0,  999.0,  999.0,  999.0,  999.0,    0.2,   -0.0,   -0.5,  999.0,  999.0,  999.0,  999.0,  999.0,  999.0,  999.0,    0.6,    0.1,   -0.3,  999.0,  999.0,  999.0,  999.0,  999.0,  999.0,  999.0,  999.0,  999.0,  999.0
1993/08/07 01:40,   -0.1,   -0.1,   -0.1,    0.2,    0.5,    0.2,    0.6,   -0.0,   -0.1,   -0.1,   -0.1,   -0.2,   -0.2,   -0.5,   -0.4,   -1.0,   -0.4,   -1.1,   -0.2,    0.4,    0.0,   -0.4,   -0.0,  999.0,   -0.7,  999.0,   -0.0,    0.0,    0.1,   -0.1,   -0.2,  999.0,    0.0,   -0.2,   -0.3,   -0.3,  999.0,  999.0,  999.0,  999.0,  999.0,  999.0,  999.0,   -0.2,   -0.1,   -0.7,   -0.4,    0.4,  999.0,    0.0,  999.0,  999.0,  999.0,  999.0,  999.0,  999.0,  999.0,  999.0
1993/08/07 01:50,   -0.1,    0.2,   -0.3,   -0.0,   -0.2,    0.0,   -0.1,   -0.0,   -0.0,   -0.1,   -0.1,   -0.2,    0.0,    0.1,   -0.0,    0.5,    0.0,    0.2,   -0.0,    0.2,    0.1,    0.2,    0.3,    0.2,    0.2,    0.3,    0.4,    0.6,    0.3,    0.2,    0.3,    0.6,    0.2,    0.1,   -0.0,    0.1,  999.0,  999.0,  999.0,  999.0,  999.0,  999.0,  999.0,  999.0,  999.0,   -0.6,   -0.8,  999.0,  999.0,  999.0,  999.0,  999.0,  999.0,   -0.9,  999.0,  999.0,   -0.0,  999.0
1993/08/07 02:00,   -0.1,    0.1,    0.2,    0.3,    0.4,    0.1,    0.3,    0.3,    0.3,    0.2,    0.2,    0.4,    0.3,    0.3,    0.2,    0.2,    0.0,    0.3,    0.0,   -0.0,   -0.1,   -0.2,   -0.2,    0.1,    0.0,    0.2,   -0.0,    0.4,   -0.1,    0.0,    0.4,   -0.1,    0.1,    0.0,   -0.0,   -0.7,   -0.5,   -0.8,   -0.9,   -0.6,   -0.7,   -0.8,   -0.8,   -0.2,   -0.3,   -0.5,   -0.6,   -0.5,   -0.4,   -1.1,   -0.3,  999.0,  999.0,  999.0,  999.0,  999.0,  999.0,  999.0
1993/08/07 02:10,    0.1,    0.0,   -0.0,    0.2,   -0.1,   -0.0,   -0.1,   -0.1,   -0.2,   -0.0,   -0.0,    0.1,    0.1,    0.2,    0.2,    0.5,    0.0,    0.1,    0.0,    0.1,   -0.9,   -0.4,   -0.6,   -1.0,   -0.7,   -0.6,   -0.7,   -1.9,   -1.5,   -1.4,   -1.4,   -1.5,   -1.9,   -1.6,   -1.4,   -1.4,   -1.4,   -1.3,   -0.9,   -1.3,   -1.2,   -1.3,   -1.1,   -0.9,   -0.6,   -0.8,   -0.8,   -0.4,   -0.4,   -0.3,   -0.7,   -1.0,  999.0,  999.0,  999.0,  999.0,  999.0,  999.0
1993/08/07 02:20,    0.3,    1.8,   -0.1,    0.1,    0.0,   -0.2,   -0.2,   -0.1,   -0.1,   -0.0,    0.0,    0.1,    0.2,   -0.4,   -1.1,   -0.6,   -1.3,   -1.7,   -2.2,   -2.3,   -2.4,   -2.4,   -2.4,   -2.3,   -2.3,   -2.2,   -2.2,   -2.1,   -1.9,   -1.6,   -1.7,   -1.5,   -1.3,   -1.2,   -1.0,   -0.9,   -0.9,   -0.9,   -0.8,   -0.7,   -0.7,   -0.5,   -0.4,   -0.3,   -0.2,   -0.1,   -0.3,   -0.7,   -0.0,   -0.3,  999.0,  999.0,  999.0,  999.0,  999.0,  999.0,  999.0,  999.0
1993/08/07 02:30,    0.1,    0.0,   -0.3,    0.1,    0.1,    0.2,   -0.0,   -0.1,   -0.0,   -0.0,    0.1,   -1.0,   -1.0,   -1.7,   -1.8,   -1.8,   -2.0,   -2.0,   -2.1,   -2.2,   -2.2,   -2.3,   -2.4,   -2.4,   -2.3,   -2.2,   -2.0,   -2.0,   -1.9,   -2.0,   -1.9,   -1.9,   -1.8,   -1.8,   -1.7,   -1.6,   -1.6,   -1.4,   -1.4,   -1.2,   -1.1,   -1.0,   -0.7,   -0.7,   -0.8,   -0.7,   -0.4,   -0.6,  999.0,  999.0,  999.0,   -0.0,  999.0,  999.0,  999.0,   -0.4,  999.0,   -1.3
1993/08/07 02:40,    0.0,   -0.1,   -0.1,   -0.1,   -0.1,   -0.4,   -0.4,   -0.2,   -0.2,   -0.3,   -1.0,   -1.6,   -1.6,   -1.6,   -1.6,   -1.4,   -1.8,   -1.7,   -1.7,   -1.8,   -1.8,   -1.9,   -2.0,   -2.0,   -2.0,   -2.0,   -2.0,   -1.9,   -1.7,   -1.9,   -1.7,   -1.8,   -1.6,   -1.5,   -1.5,   -1.4,   -1.2,   -1.1,   -1.0,   -1.0,   -0.9,   -1.0,   -0.9,   -0.9,   -0.8,   -0.9,   -0.8,   -0.9,   -0.9,   -0.8,   -0.7,   -0.9,   -1.0,   -0.9,   -0.6,  999.0,   -0.5,  999.0
1993/08/07 02:50,    0.2,   -0.1,   -0.6,   -0.6,   -0.5,   -1.1,   -0.9,   -0.5,   -0.5,   -0.6,   -1.0,   -1.3,   -1.5,   -1.7,   -1.7,   -1.6,   -1.5,   -1.6,   -1.5,   -1.5,   -1.5,   -1.5,   -1.6,   -1.6,   -1.6,   -1.6,   -1.5,   -1.4,   -1.2,   -1.1,   -1.2,   -1.3,   -1.2,   -1.2,   -1.1,   -1.1,   -1.2,   -1.1,   -1.1,   -1.1,   -1.0,   -1.0,   -1.0,   -0.9,   -1.1,   -1.0,   -1.0,   -1.0,   -1.0,   -0.9,   -1.0,   -0.6,   -1.2,   -1.3,  999.0,  999.0,  999.0,  999.0
1993/08/07 03:00,    0.2,    0.0,   -0.0,   -0.1,    0.0,    0.1,    0.1,   -0.1,   -0.4,   -0.2,   -0.5,   -0.3,   -0.8,   -1.4,   -1.6,   -2.1,   -2.2,   -2.2,   -2.1,   -2.1,   -2.1,   -1.9,   -1.9,   -1.9,   -1.9,   -1.9,   -2.0,   -1.8,   -1.8,   -1.8,   -1.8,   -1.8,   -1.8,   -1.8,   -1.8,   -1.7,   -1.6,   -1.6,   -1.5,   -1.6,   -1.5,   -1.4,   -1.4,   -1.4,   -1.4,   -1.3,   -1.2,   -0.8,   -0.8,   -1.2,   -0.6,   -0.9,   -1.1,  999.0,  999.0,   -0.9,  999.0,   -1.1
1993/08/07 03:10,    0.2,    0.1,    0.6,   -0.0,   -0.1,   -0.2,   -0.1,    0.1,    0.1,   -0.4,   -0.7,   -1.2,   -1.5,   -1.7,   -2.0,   -2.0,   -2.0,   -1.9,   -1.9,   -1.8,   -1.9,   -2.0,   -2.0,   -1.9,   -1.9,   -1.9,   -1.9,   -1.7,   -1.6,   -1.5,   -1.1,   -1.1,   -1.1,   -1.0,   -1.1,   -1.1,   -0.9,   -0.9,   -0.8,   -0.8,   -0.8,   -0.7,   -0.6,   -0.4,   -0.6,   -0.5,   -0.5,   -0.5,   -0.5,   -0.3,   -0.6,   -0.8,   -1.0,   -0.6,   -0.7,  999.0,  999.0,  999.0
1993/08/07 03:20,    0.2,    0.0,   -0.2,   -0.0,    0.0,    0.1,    0.1,   -0.2,    0.2,   -0.9,   -2.0,   -2.2,   -2.2,   -2.0,   -2.1,   -1.9,   -1.7,   -1.6,   -1.6,   -1.5,   -1.5,   -1.5,   -1.5,   -1.6,   -1.6,   -1.6,   -1.6,   -1.6,   -1.7,   -1.7,   -1.7,   -1.7,   -1.5,   -1.5,   -1.4,   -1.4,   -1.3,   -1.3,   -1.3,   -1.3,   -1.3,   -1.3,   -1.3,   -1.1,   -1.2,   -1.1,   -0.9,   -0.9,   -0.7,   -0.8,   -1.1,   -1.0,   -0.9,  999.0,  999.0,   -0.4,  999.0,  999.0
1993/08/07 03:30,   -0.2,   -0.2,   -0.4,   -0.0,   -1.1,   -1.6,   -1.2,   -1.2,   -1.2,   -1.6,   -2.0,   -2.2,   -2.3,   -2.4,   -2.4,   -2.4,   -2.4,   -2.3,   -2.4,   -2.4,   -2.4,   -2.4,   -2.2,   -1.9,   -1.7,   -1.5,   -1.4,   -1.4,   -1.4,   -1.4,   -1.3,   -1.3,   -1.3,   -1.4,   -1.3,   -1.2,   -1.2,   -1.1,   -1.1,   -1.1,   -1.1,   -1.2,   -1.0,   -0.9,   -0.7,   -1.1,   -1.0,   -0.6,   -0.9,  999.0,   -1.0,  999.0,  999.0,  999.0,   -1.5,  999.0,  999.0,  999.0
1993/08/07 03:40,    0.3,    0.4,    0.3,   -0.1,    0.3,    0.0,   -0.1,   -0.5,   -0.7,   -1.3,   -1.8,   -2.4,   -2.5,   -2.6,   -2.8,   -2.9,   -2.8,   -2.8,   -2.7,   -2.8,   -2.8,   -2.8,   -2.8,   -2.6,   -2.3,   -2.1,   -1.9,   -1.8,   -1.6,   -1.4,   -1.2,   -1.2,   -1.3,   -1.1,   -1.1,   -1.1,   -1.0,   -1.1,   -1.1,   -1.2,   -1.2,   -1.3,   -1.3,   -1.2,   -1.0,   -0.7,   -1.4,   -1.2,   -0.3,   -0.4,  999.0,  999.0,  999.0,  999.0,  999.0,  999.0,  999.0,  999.0
1993/08/07 03:50,    0.1,    0.5,   -0.1,   -0.2,   -0.2,   -0.1,   -0.1,   -0.2,   -0.5,   -1.8,   -1.5,   -2.3,   -2.1,   -2.3,   -2.4,   -2.0,   -1.8,   -2.3,   -2.4,   -2.4,   -2.4,   -2.3,   -2.3,   -2.1,   -2.0,   -1.9,   -1.7,   -1.6,   -1.5,   -1.5,   -1.4,   -1.3,   -1.3,   -1.3,   -1.1,   -0.9,   -0.9,   -0.7,   -0.8,   -0.9,   -0.6,   -0.5,   -0.6,   -0.7,   -0.6,   -0.6,  999.0,  999.0,   -0.3,   -0.4,  999.0,  999.0,  999.0,  999.0,   -0.6,  999.0,  999.0,  999.0
1993/08/07 04:00,   -0.4,   -0.3,   -0.2,   -1.0,   -1.6,   -1.9,   -2.0,   -2.0,   -2.2,   -2.2,   -2.2,   -2.1,   -2.1,   -2.1,   -1.9,   -1.9,   -1.8,   -1.7,   -1.7,   -1.6,   -1.4,   -1.4,   -1.3,   -1.0,   -0.8,   -0.7,   -0.7,   -0.6,   -0.7,   -0.8,   -0.8,   -0.9,   -0.8,   -0.8,   -0.9,   -1.0,   -1.0,   -0.9,   -0.6,   -0.8,   -0.5,   -0.9,  999.0,   -0.1,   -0.6,  999.0,  999.0,   -0.4,   -0.5,   -0.9,  999.0,  999.0,  999.0,  999.0,   -0.2,  999.0,  999.0,  999.0
1993/08/07 04:10,    0.9,    0.9,   -0.2,  999.0,    0.3,   -1.3,   -1.3,   -1.4,   -1.8,   -2.0,   -2.0,   -2.1,   -2.2,   -2.2,   -2.1,   -1.9,   -1.2,   -1.7,   -1.7,   -1.8,   -1.7,   -1.7,   -1.4,   -1.4,   -1.3,   -1.2,   -1.3,   -0.9,   -0.8,   -1.1,   -1.1,   -0.9,   -1.1,   -1.1,   -0.9,   -0.8,   -1.1,   -0.9,   -0.7,  999.0,   -1.0,  999.0,  999.0,   -0.3,   -0.1,  999.0,   -0.3,   -0.4,   -0.3,  999.0,  999.0,  999.0,  999.0,  999.0,  999.0,  999.0,  999.0,  999.0
1993/08/07 04:20,    0.0,   -0.2,   -0.2,    0.2,    0.4,    0.6,   -0.8,   -2.0,   -2.1,   -1.9,   -2.0,   -2.2,   -2.3,   -2.4,   -2.4,   -2.4,   -2.5,   -2.5,   -2.4,   -2.1,   -1.9,   -1.9,   -1.4,   -1.4,   -1.0,   -0.8,   -1.3,   -0.5,   -0.3,   -0.8,   -0.2,   -0.5,   -0.9,   -1.1,   -0.9,   -1.0,   -0.8,  999.0,  999.0,  999.0,   -0.5,  999.0,  999.0,   -0.1,    0.1,   -0.5,    0.1,    0.1,    0.0,  999.0,  999.0,  999.0,  999.0,  999.0,  999.0,  999.0,   -1.1,  999.0
1993/08/07 04:30,    0.1,    0.1,   -0.1,    0.1,    0.2,    0.1,   -1.0,   -1.2,   -1.7,   -1.7,   -1.7,   -1.9,   -1.8,   -2.0,   -2.2,   -2.2,   -2.1,   -2.0,   -2.0,   -2.0,   -1.9,   -1.7,   -1.6,   -1.5,   -1.1,   -0.9,   -0.9,   -0.7,   -0.4,   -0.2,   -0.2,   -0.5,   -0.6,   -0.7,   -0.4,   -0.4,  999.0,   -0.0,    0.1,   -0.7,  999.0,  999.0,  999.0,    0.1,  999.0,   -0.0,   -0.0,  999.0,  999.0,  999.0,  999.0,  999.0,  999.0,  999.0,  999.0,  999.0,  999.0,  999.0
1993/08/07 04:40,    0.1,    0.3,    0.1,    0.2,    0.3,    0.4,    0.1,   -0.2,   -0.3,   -1.4,   -1.7,   -2.1,   -2.0,   -2.1,   -2.2,   -2.2,   -2.1,   -2.1,   -2.2,   -2.0,   -2.1,   -2.2,   -2.1,   -1.9,   -1.6,   -1.3,   -1.3,   -1.6,    0.1,    0.1,    0.0,   -0.2,  999.0,  999.0,    0.1,  999.0,   -0.1,  999.0,  999.0,  999.0,  999.0,  999.0,  999.0,    0.0,  999.0,   -0.5,   -0.1,   -0.1,  999.0,  999.0,  999.0,  999.0,  999.0,  999.0,  999.0,  999.0,  999.0,  999.0
1993/08/07 04:50,    0.3,   -0.2,   -0.2,   -0.3,   -0.1,    0.1,    0.1,   -0.0,    0.5,   -0.4,   -0.4,   -0.8,   -1.4,   -2.2,   -1.6,   -0.7,   -1.2,   -1.2,   -1.7,   -1.5,   -1.4,   -2.3,   -0.9,  999.0,   -0.2,    0.2,  999.0,  999.0,    0.2,    0.1,    0.3,  999.0,  999.0,  999.0,  999.0,  999.0,  999.0,  999.0,  999.0,  999.0,  999.0,  999.0,   -0.1,  999.0,  999.0,   -0.5,   -0.4,   -0.4,  999.0,  999.0,  999.0,  999.0,  999.0,  999.0,  999.0,  999.0,  999.0,  999.0
1993/08/07 05:00,   -0.3,   -0.3,   -0.4,   -0.2,   -0.2,   -0.1,   -0.1,   -0.2,   -0.3,   -0.2,    0.0,   -0.2,   -0.1,   -0.1,   -0.2,   -0.4,    0.1,   -0.2,  999.0,   -1.2,   -0.6,   -0.3,   -1.3,  999.0,   -0.1,   -0.0,  999.0,    0.2,   -0.5,  999.0,   -0.0,   -0.1,  999.0,  999.0,  999.0,  999.0,    0.5,  999.0,  999.0,  999.0,  999.0,  999.0,  999.0,  999.0,  999.0,  999.0,   -0.2,   -0.0,   -0.1,  999.0,  999.0,  999.0,  999.0,  999.0,  999.0,  999.0,  999.0,  999.0
1993/08/07 05:10,    0.0,    0.0,    0.0,   -0.2,    0.2,    0.2,   -0.1,   -0.1,   -0.0,   -0.0,    0.6,    0.3,    0.2,    0.3,    0.2,    0.2,   -0.1,  999.0,    0.1,    0.0,  999.0,    0.2,  999.0,    0.0,   -0.1,    0.1,  999.0,  999.0,    0.3,    0.2,  999.0,    0.5,  999.0,  999.0,  999.0,  999.0,  999.0,   -0.0,  999.0,  999.0,  999.0,  999.0,  999.0,  999.0,  999.0,  999.0,  999.0,   -0.3,   -0.0,   -0.0,  999.0,  999.0,  999.0,  999.0,  999.0,  999.0,  999.0,  999.0
1993/08/07 05:20,    0.1,    0.1,    0.1,   -0.0,   -0.0,   -0.1,   -0.2,   -0.1,   -0.2,   -0.4,   -0.4,   -0.1,   -0.1,    0.2,   -0.1,    0.1,    0.0,  999.0,    0.2,  999.0,   -0.4,   -0.5,  999.0,   -0.4,  999.0,  999.0,  999.0,  999.0,   -0.0,   -0.0,   -0.0,   -0.2,    0.3,  999.0,    0.1,  999.0,  999.0,  999.0,  999.0,  999.0,  999.0,  999.0,  999.0,  999.0,  999.0,  999.0,  999.0,   -0.1,   -0.7,  999.0,  999.0,  999.0,  999.0,  999.0,    0.2,  999.0,  999.0,  999.0
1993/08/07 05:30,   -0.4,    0.4,   -0.1,   -0.1,   -0.1,    0.2,    0.2,    0.0,    0.0,    0.1,   -0.1,   -0.0,    0.0,   -0.2,    0.5,    0.2,   -0.1,   -0.2,    0.2,    0.5,   -0.8,    0.6,  999.0,    0.0,  999.0,  999.0,  999.0,  999.0,    0.1,  999.0,   -0.2,   -0.1,   -0.3,  999.0,  999.0,  999.0,  999.0,  999.0,  999.0,  999.0,  999.0,  999.0,  999.0,  999.0,  999.0,  999.0,  999.0,  999.0,  999.0,  999.0,  999.0,  999.0,  999.0,   -0.1,  999.0,  999.0,  999.0,  999.0
1993/08/07 05:40,   -0.2,   -0.3,   -0.2,   -0.2,   -0.3,   -0.1,   -0.0,    0.1,    0.3,    0.2,    0.1,   -0.4,   -0.2,   -0.0,    0.8,  999.0,  999.0,  999.0,  999.0,  999.0,  999.0,  999.0,  999.0,  999.0,  999.0,  999.0,  999.0,  999.0,  999.0,  999.0,   -0.1,   -0.0,   -0.0,  999.0,  999.0,  999.0,  999.0,  999.0,  999.0,   -0.2,  999.0,  999.0,  999.0,  999.0,  999.0,  999.0,  999.0,  999.0,  999.0,  999.0,  999.0,  999.0,  999.0,  999.0,  999.0,  999.0,  999.0,  999.0
1993/08/07 05:50,    0.4,    0.4,    0.1,    0.1,    0.1,    0.1,    0.1,    0.1,    0.0,    0.0,   -0.1,   -0.0,  999.0,   -0.0,    0.0,    0.0,    0.0,  999.0,   -0.1,    0.4,  999.0,  999.0,  999.0,    0.1,  999.0,  999.0,  999.0,  999.0,  999.0,  999.0,    0.3,    0.2,  999.0,  999.0,  999.0,  999.0,  999.0,  999.0,  999.0,  999.0,  999.0,  999.0,  999.0,  999.0,  999.0,  999.0,  999.0,    0.1,  999.0,  999.0,  999.0,  999.0,  999.0,  999.0,  999.0,  999.0,  999.0,  999.0
1993/08/07 06:00,    0.3,    0.4,    0.3,   -0.1,   -0.1,   -0.2,   -0.1,   -0.0,   -0.1,   -0.1,    0.0,   -0.0,   -0.1,   -0.1,   -0.2,   -0.1,   -0.3,   -0.2,  999.0,  999.0,  999.0,  999.0,  999.0,  999.0,  999.0,  999.0,  999.0,  999.0,  999.0,    0.1,    0.0,    0.0,  999.0,   -0.1,  999.0,  999.0,  999.0,  999.0,  999.0,  999.0,  999.0,  999.0,  999.0,  999.0,  999.0,  999.0,   -0.1,   -0.0,   -0.0,  999.0,  999.0,  999.0,  999.0,  999.0,   -0.2,  999.0,  999.0,  999.0
1993/08/07 06:10,   -0.1,   -0.0,    0.2,    0.0,    0.2,    0.3,    0.4,    0.3,    0.4,    0.1,    0.3,   -0.1,   -0.0,   -0.0,    0.1,   -0.3,    0.2,   -0.8,    0.1,  999.0,  999.0,   -0.1,  999.0,  999.0,  999.0,  999.0,  999.0,  999.0,  999.0,   -0.1,    0.1,    0.1,  999.0,  999.0,  999.0,   -0.9,  999.0,  999.0,  999.0,  999.0,  999.0,  999.0,    0.5,  999.0,  999.0,  999.0,   -0.1,   -0.2,  999.0,  999.0,  999.0,  999.0,  999.0,  999.0,  999.0,  999.0,  999.0,  999.0
1993/08/07 06:20,   -0.4,   -0.1,    0.2,    0.2,   -0.1,   -0.2,   -0.2,    0.0,    0.1,    0.2,    0.2,    0.1,    0.1,    0.1,    0.1,    0.4,    0.0,   -0.4,    0.1,    0.1,  999.0,    0.1,  999.0,  999.0,   -0.1,    0.0,  999.0,  999.0,  999.0,    0.2,    0.2,    0.3,  999.0,  999.0,  999.0,  999.0,  999.0,  999.0,  999.0,   -0.1,  999.0,  999.0,  999.0,  999.0,  999.0,  999.0,    0.1,    0.0,  999.0,  999.0,  999.0,  999.0,  999.0,  999.0,  999.0,  999.0,  999.0,  999.0
1993/08/07 06:30,   -0.5,  999.0,    0.2,    0.1,   -0.1,   -0.0,   -0.0,    0.0,   -0.0,    0.0,   -0.2,    0.1,    0.1,    0.1,   -0.2,   -0.2,   -0.0,  999.0,    0.0,  999.0,  999.0,  999.0,  999.0,   -0.1,   -0.3,  999.0,  999.0,  999.0,  999.0,   -0.0,  999.0,    0.0,  999.0,  999.0,  999.0,  999.0,  999.0,  999.0,  999.0,  999.0,  999.0,  999.0,  999.0,  999.0,  999.0,  999.0,   -0.1,   -0.1,  999.0,  999.0,  999.0,  999.0,  999.0,  999.0,  999.0,  999.0,  999.0,  999.0
1993/08/07 06:40,    0.4,   -0.0,   -0.1,    0.0,    0.1,    0.2,    0.1,    0.1,    0.1,    0.0,   -0.0,    0.2,    0.1,    0.1,   -0.1,    0.1,    0.3,    0.2,    0.0,  999.0,  999.0,   -0.1,  999.0,  999.0,    0.0,  999.0,  999.0,  999.0,  999.0,  999.0,    0.0,    0.1,  999.0,  999.0,  999.0,    0.6,  999.0,  999.0,  999.0,    0.2,  999.0,  999.0,  999.0,  999.0,  999.0,  999.0,   -0.1,    0.0,   -0.6,  999.0,  999.0,  999.0,  999.0,  999.0,  999.0,  999.0,  999.0,  999.0
1993/08/07 06:50,    0.2,    0.1,    0.1,    0.1,    0.1,    0.1,    0.0,    0.2,    0.3,    0.1,    0.2,    0.2,    0.1,    0.0,    0.1,   -0.1,   -0.1,    0.1,   -0.0,    0.0,    0.2,   -0.1,   -0.2,   -0.1,  999.0,  999.0,  999.0,  999.0,  999.0,    0.0,    0.1,    0.0,  999.0,  999.0,  999.0,  999.0,  999.0,  999.0,  999.0,  999.0,  999.0,  999.0,  999.0,  999.0,  999.0,  999.0,   -0.1,   -0.4,  999.0,  999.0,  999.0,  999.0,  999.0,  999.0,  999.0,  999.0,  999.0,  999.0
1993/08/07 07:00,   -0.3,   -0.4,   -0.2,   -0.1,   -0.2,   -0.1,   -0.2,   -0.0,   -0.1,    0.0,   -0.1,   -0.1,   -0.1,   -0.1,   -0.8,   -0.3,    0.0,    0.1,  999.0,   -0.2,   -0.3,   -0.2,  999.0,  999.0,   -0.1,    0.1,  999.0,  999.0,   -0.2,   -0.1,    0.0,   -0.1,  999.0,  999.0,  999.0,  999.0,  999.0,  999.0,   -0.0,  999.0,  999.0,  999.0,   -0.1,  999.0,  999.0,   -0.1,  999.0,  999.0,  999.0,  999.0,  999.0,   -0.4,  999.0,  999.0,  999.0,  999.0,  999.0,  999.0
1993/08/07 07:10,    0.0,   -0.1,   -0.1,    0.2,    0.3,    0.2,    0.0,    0.0,    0.0,   -0.1,   -0.1,    0.1,    0.1,    0.2,    0.3,    0.2,    0.1,    0.0,  999.0,    0.1,    0.2,  999.0,  999.0,  999.0,  999.0,  999.0,  999.0,  999.0,    0.1,    0.2,    0.1,  999.0,    0.0,  999.0,  999.0,  999.0,  999.0,  999.0,  999.0,  999.0,  999.0,  999.0,  999.0,  999.0,  999.0,  999.0,  999.0,  999.0,  999.0,  999.0,  999.0,  999.0,  999.0,  999.0,  999.0,  999.0,  999.0,  999.0
1993/08/07 07:20,    0.1,   -0.1,    0.1,    0.2,   -0.1,   -0.0,   -0.1,   -0.1,   -0.3,   -0.2,   -0.4,   -0.4,   -0.0,    0.1,   -0.1,    0.1,    0.5,   -0.1,    0.2,  999.0,  999.0,  999.0,   -0.3,   -0.0,  999.0,  999.0,  999.0,  999.0,   -0.0,   -0.2,   -0.1,  999.0,  999.0,  999.0,  999.0,  999.0,  999.0,  999.0,  999.0,  999.0,   -0.1,  999.0,  999.0,  999.0,  999.0,  999.0,    0.1,  999.0,  999.0,  999.0,  999.0,  999.0,    0.1,  999.0,  999.0,  999.0,  999.0,  999.0
1993/08/07 07:30,   -0.3,   -0.2,    0.1,   -0.2,   -0.0,   -0.0,   -0.0,    0.2,   -0.0,   -0.0,   -0.1,   -0.3,    0.2,   -0.3,   -0.1,   -0.1,   -0.1,   -0.0,  999.0,    0.7,    1.0,   -0.6,  999.0,   -0.0,  999.0,  999.0,    0.0,  999.0,    0.2,    0.0,   -0.0,  999.0,  999.0,  999.0,  999.0,    0.0,  999.0,  999.0,  999.0,  999.0,  999.0,  999.0,  999.0,  999.0,  999.0,    0.8,  999.0,  999.0,  999.0,  999.0,  999.0,  999.0,  999.0,  999.0,  999.0,  999.0,  999.0,  999.0
1993/08/07 07:40,   -0.0,    0.2,   -0.1,   -0.0,   -0.1,   -0.1,   -0.1,    0.1,    0.1,   -0.1,   -0.0,   -0.1,   -0.2,    0.0,    0.0,   -0.2,   -0.1,   -0.0,  999.0,  999.0,   -0.1,   -0.1,  999.0,  999.0,  999.0,  999.0,  999.0,  999.0,  999.0,    0.0,    0.1,  999.0,  999.0,  999.0,  999.0,  999.0,  999.0,  999.0,  999.0,  999.0,  999.0,  999.0,  999.0,  999.0,  999.0,  999.0,  999.0,  999.0,  999.0,  999.0,  999.0,  999.0,  999.0,  999.0,  999.0,  999.0,  999.0,  999.0
1993/08/07 07:50,   -0.1,   -0.1,    0.1,   -0.1,   -0.1,   -0.0,    0.0,    0.1,    0.0,   -0.1,  999.0,    0.2,    0.3,    0.2,    0.9,    0.2,  999.0,  999.0,   -0.1,    0.5,  999.0,  999.0,  999.0,  999.0,  999.0,  999.0,  999.0,  999.0,  999.0,  999.0,  999.0,  999.0,  999.0,  999.0,  999.0,  999.0,  999.0,  999.0,  999.0,  999.0,    0.1,  999.0,  999.0,  999.0,  999.0,  999.0,  999.0,  999.0,  999.0,  999.0,  999.0,  999.0,  999.0,  999.0,  999.0,  999.0,  999.0,  999.0
1993/08/07 08:00,    0.1,   -0.0,   -0.0,   -0.0,    0.2,   -0.0,   -0.1,   -0.2,    0.0,    0.3,  999.0,    0.2,    0.0,   -0.2,    0.0,   -0.1,   -0.1,    0.0,  999.0,  999.0,   -0.4,  999.0,  999.0,  999.0,  999.0,  999.0,  999.0,   -0.0,  999.0,  999.0,    0.6,  999.0,  999.0,  999.0,  999.0,    1.1,  999.0,  999.0,  999.0,  999.0,    1.0,  999.0,  999.0,  999.0,  999.0,  999.0,  999.0,  999.0,  999.0,  999.0,  999.0,  999.0,  999.0,  999.0,    1.0,  999.0,  999.0,  999.0
1993/08/07 08:10,   -0.4,    0.0,    0.1,   -0.1,   -0.0,    0.0,    0.0,    0.2,    0.2,    0.0,   -0.2,    0.0,    0.0,   -0.2,   -0.4,   -0.1,   -0.2,   -0.1,  999.0,   -0.1,   -0.0,   -0.3,  999.0,   -0.2,  999.0,  999.0,  999.0,   -0.1,   -0.1,  999.0,  999.0,  999.0,  999.0,  999.0,  999.0,  999.0,  999.0,  999.0,  999.0,  999.0,  999.0,  999.0,  999.0,  999.0,  999.0,  999.0,  999.0,  999.0,  999.0,    0.8,  999.0,  999.0,  999.0,    0.8,  999.0,  999.0,    1.0,    0.8
1993/08/07 08:20,   -0.1,   -0.1,   -0.1,    0.1,    0.1,    0.2,    0.2,    0.2,    0.2,    0.1,   -0.0,   -0.0,   -0.3,   -0.1,   -0.2,   -0.2,   -0.0,   -0.0,  999.0,   -0.5,   -0.2,  999.0,  999.0,  999.0,  999.0,  999.0,  999.0,    0.1,    0.1,   -0.1,    0.1,  999.0,  999.0,  999.0,  999.0,  999.0,  999.0,  999.0,  999.0,  999.0,  999.0,  999.0,    0.7,  999.0,    0.7,  999.0,    0.7,  999.0,  999.0,  999.0,  999.0,  999.0,  999.0,    0.9,  999.0,  999.0,    0.7,  999.0
1993/08/07 08:30,   -0.2,   -0.4,   -0.2,    0.1,   -0.1,   -0.0,   -0.1,   -0.0,   -0.2,  999.0,   -0.2,   -0.1,   -0.1,   -0.1,   -0.2,   -0.2,   -0.1,   -0.3,   -0.2,   -0.3,   -0.4,   -0.4,   -0.6,  999.0,  999.0,  999.0,   -0.4,    0.1,   -0.0,   -0.1,  999.0,  999.0,   -0.0,  999.0,  999.0,  999.0,    0.5,    0.4,  999.0,  999.0,    0.4,  999.0,    0.5,  999.0,  999.0,  999.0,  999.0,  999.0,    0.7,    0.6,  999.0,  999.0,  999.0,  999.0,  999.0,    0.7,  999.0,    0.7
1993/08/07 08:40,   -0.4,   -0.5,   -0.3,   -0.1,   -0.2,   -0.2,   -0.2,    0.1,    0.1,   -0.0,    0.1,   -0.0,   -0.1,   -0.1,   -0.2,   -0.1,   -0.2,   -0.2,  999.0,   -0.3,   -0.3,   -0.4,    0.2,  999.0,  999.0,   -0.4,   -0.5,   -0.6,   -0.3,   -0.2,   -0.3,  999.0,  999.0,  999.0,  999.0,  999.0,  999.0,  999.0,  999.0,  999.0,  999.0,    0.4,  999.0,  999.0,  999.0,  999.0,  999.0,  999.0,  999.0,  999.0,  999.0,    0.6,  999.0,  999.0,  999.0,  999.0,    0.5,  999.0
1993/08/07 08:50,   -0.2,   -0.2,   -0.1,   -0.0,   -0.0,   -0.1,   -0.1,   -0.0,   -0.2,   -0.1,    0.1,    0.0,    0.2,   -0.0,    0.0,    0.1,    0.0,  999.0,    0.1,  999.0,  999.0,  999.0,    0.1,  999.0,   -0.7,   -0.2,   -0.2,   -0.1,   -0.0,   -0.0,   -0.2,  999.0,  999.0,  999.0,    0.1,  999.0,    0.2,  999.0,  999.0,  999.0,  999.0,  999.0,  999.0,  999.0,  999.0,    0.1,  999.0,  999.0,  999.0,  999.0,    0.2,  999.0,    0.2,    0.2,    0.2,    0.2,    0.2,  999.0
1993/08/07 09:00,   -0.4,   -0.4,   -0.3,    0.0,    0.1,    0.0,   -0.0,   -0.0,    0.1,    0.0,    0.1,    0.0,    0.1,   -0.1,   -0.3,  999.0,   -0.2,  999.0,  999.0,  999.0,  999.0,  999.0,    0.0,  999.0,    0.1,   -0.2,   -0.2,   -0.2,   -0.1,    0.1,    0.1,  999.0,  999.0,  999.0,  999.0,  999.0,    1.0,  999.0,  999.0,  999.0,  999.0,    0.1,    0.1,  999.0,  999.0,    0.1,  999.0,  999.0,    0.2,    0.2,    0.2,  999.0,  999.0,  999.0,  999.0,  999.0,    0.2,  999.0
1993/08/07 09:10,    0.0,   -0.3,    0.3,    0.2,    0.2,    0.4,   -0.2,   -0.1,    0.1,   -0.1,   -0.3,   -0.4,   -0.5,   -0.9,   -0.2,  999.0,  999.0,  999.0,  999.0,  999.0,  999.0,  999.0,  999.0,  999.0,    0.2,    0.2,    0.1,    0.0,   -0.1,   -0.2,  999.0,  999.0,  999.0,  999.0,  999.0,  999.0,    0.1,  999.0,  999.0,  999.0,  999.0,  999.0,    0.1,  999.0,  999.0,  999.0,  999.0,  999.0,  999.0,  999.0,  999.0,  999.0,  999.0,  999.0,  999.0,  999.0,  999.0,    0.3
1993/08/07 09:20,   -0.3,   -0.1,   -0.1,    0.4,    0.2,    0.2,    0.3,    0.1,    0.1,    0.2,    0.1,    0.2,    0.2,   -0.0,   -0.0,    0.2,    0.3,    0.4,  999.0,  999.0,   -0.0,  999.0,  999.0,  999.0,  999.0,   -0.1,   -0.2,   -0.0,   -0.1,   -0.3,    0.0,  999.0,  999.0,  999.0,   -0.1,   -0.1,  999.0,  999.0,  999.0,  999.0,  999.0,  999.0,  999.0,  999.0,  999.0,  999.0,  999.0,    0.1,  999.0,  999.0,  999.0,  999.0,    0.2,  999.0,  999.0,    0.3,  999.0,  999.0
1993/08/07 09:30,   -0.5,   -1.0,   -0.6,   -0.3,    0.1,   -0.1,    0.1,   -0.0,   -0.1,    0.0,    0.0,    0.0,   -0.1,   -0.0,    0.1,   -0.0,    0.2,  999.0,  999.0,  999.0,  999.0,  999.0,  999.0,  999.0,   -0.2,  999.0,   -0.2,   -0.1,   -0.1,   -0.1,  999.0,  999.0,  999.0,  999.0,  999.0,  999.0,  999.0,  999.0,  999.0,  999.0,  999.0,  999.0,  999.0,  999.0,  999.0,  999.0,    0.1,    0.1,  999.0,  999.0,    0.2,    0.1,  999.0,  999.0,    0.2,  999.0,    0.2,    0.2
1993/08/07 09:40,   -0.5,   -0.2,   -0.2,   -0.3,   -0.2,   -0.2,   -0.3,   -0.2,   -0.1,   -0.2,    0.0,    0.0,    0.1,    0.3,    0.0,    0.3,    0.1,  999.0,  999.0,   -0.2,  999.0,  999.0,   -0.2,   -0.2,   -0.2,   -0.4,   -0.0,    0.3,    0.1,   -0.1,  999.0,  999.0,  999.0,  999.0,  999.0,  999.0,  999.0,  999.0,  999.0,  999.0,  999.0,    0.1,    0.1,    0.1,  999.0,  999.0,  999.0,  999.0,  999.0,    0.2,    0.2,    0.2,  999.0,    0.2,    0.2,  999.0,    0.2,  999.0
1993/08/07 09:50,    0.2,    0.1,   -0.1,   -0.2,   -0.0,   -0.1,   -0.0,    0.1,   -0.0,   -0.1,   -0.1,    0.2,    0.2,    0.2,    0.1,    0.1,   -0.1,  999.0,   -0.0,  999.0,  999.0,   -0.2,   -0.0,   -0.2,   -0.3,   -0.6,  999.0,   -0.0,   -0.2,  999.0,  999.0,  999.0,  999.0,    0.1,  999.0,  999.0,  999.0,  999.0,  999.0,  999.0,  999.0,  999.0,  999.0,  999.0,    0.1,  999.0,  999.0,  999.0,  999.0,    0.2,    0.2,  999.0,  999.0,  999.0,    0.2,  999.0,  999.0,    0.2
1993/08/07 10:00,    0.1,   -0.2,   -0.3,   -0.2,   -0.0,   -0.2,   -0.3,   -0.1,   -0.1,   -0.1,   -0.0,   -0.1,   -0.0,    0.1,    0.1,    0.0,  999.0,  999.0,  999.0,  999.0,    0.0,  999.0,   -0.3,   -0.2,   -0.2,   -0.5,  999.0,   -0.4,    0.1,  999.0,  999.0,  999.0,  999.0,  999.0,  999.0,    0.1,  999.0,  999.0,  999.0,  999.0,  999.0,  999.0,  999.0,  999.0,  999.0,  999.0,  999.0,  999.0,    0.1,    0.1,  999.0,  999.0,    0.2,  999.0,  999.0,  999.0,  999.0,  999.0
1993/08/07 10:10,    0.2,    0.0,   -0.0,   -0.1,   -0.4,   -0.4,   -0.4,   -0.4,   -0.4,   -0.4,   -0.5,   -0.5,   -0.5,   -0.3,   -0.7,   -0.3,   -0.2,   -0.2,   -0.3,  999.0,  999.0,    0.1,   -0.0,    0.0,    0.2,   -0.4,  999.0,  999.0,    0.1,    0.1,  999.0,  999.0,  999.0,  999.0,  999.0,  999.0,  999.0,  999.0,  999.0,  999.0,  999.0,  999.0,  999.0,  999.0,  999.0,  999.0,   -0.1,    0.1,    0.1,  999.0,  999.0,    0.1,  999.0,  999.0,  999.0,  999.0,    0.1,    0.1
1993/08/07 10:20,    0.7,    1.0,    0.4,    0.2,    0.3,    0.1,    0.0,   -0.2,   -0.1,   -0.1,   -0.2,   -0.2,   -0.2,   -0.4,  999.0,   -0.2,    0.2,  999.0,   -0.1,   -0.1,    0.1,  999.0,   -0.2,    0.0,   -1.7,  999.0,    0.2,  999.0,    0.1,    0.3,  999.0,  999.0,  999.0,  999.0,  999.0,  999.0,  999.0,  999.0,  999.0,  999.0,  999.0,  999.0,  999.0,  999.0,  999.0,    0.1,  999.0,  999.0,    0.1,  999.0,    0.1,  999.0,    0.1,  999.0,    0.2,  999.0,  999.0,  999.0
1993/08/07 10:30,    0.7,    0.5,    0.2,    0.2,   -0.2,   -0.0,   -0.1,   -0.2,   -0.5,   -0.2,   -0.2,   -0.0,   -0.0,   -0.2,  999.0,   -0.2,   -0.1,  999.0,  999.0,    0.0,  999.0,  999.0,    0.0,  999.0,   -0.0,  999.0,  999.0,  999.0,    0.2,    0.3,  999.0,  999.0,  999.0,  999.0,  999.0,    0.0,  999.0,  999.0,  999.0,  999.0,  999.0,  999.0,  999.0,  999.0,  999.0,  999.0,  999.0,  999.0,  999.0,  999.0,  999.0,    0.2,  999.0,    0.1,    0.2,  999.0,    0.1,  999.0
1993/08/07 10:40,   -0.7,   -0.6,   -0.6,   -0.5,   -0.1,    0.0,   -0.1,   -0.4,   -0.4,   -0.5,   -0.5,   -0.3,    0.0,   -0.3,   -0.6,    0.0,   -0.1,  999.0,   -0.3,   -0.2,  999.0,  999.0,   -0.1,  999.0,  999.0,  999.0,   -0.3,   -0.3,   -0.1,  999.0,  999.0,  999.0,  999.0,  999.0,  999.0,  999.0,    0.1,  999.0,  999.0,  999.0,  999.0,  999.0,  999.0,  999.0,  999.0,  999.0,  999.0,    0.1,  999.0,  999.0,    0.1,    0.1,  999.0,    0.1,    0.1,    0.1,  999.0,    0.2
1993/08/07 10:50,   -0.5,   -1.0,   -1.1,   -0.6,   -0.9,   -0.6,   -0.3,   -0.4,   -0.4,   -0.2,   -0.4,   -0.6,   -0.5,   -0.5,  999.0,  999.0,    0.4,  999.0,    0.6,  999.0,    0.5,   -0.1,  999.0,  999.0,  999.0,  999.0,    0.3,   -0.0,  999.0,  999.0,  999.0,  999.0,  999.0,  999.0,  999.0,  999.0,  999.0,  999.0,  999.0,  999.0,  999.0,  999.0,  999.0,  999.0,  999.0,  999.0,  999.0,  999.0,  999.0,    0.1,  999.0,    0.1,    0.1,  999.0,    0.1,    0.1,    0.1,  999.0
1993/08/07 11:00,   -1.1,   -0.8,   -1.0,   -1.0,   -1.0,   -0.6,   -0.1,   -0.1,   -0.1,   -0.2,   -0.4,   -0.5,   -0.5,   -0.3,   -0.4,   -0.3,   -0.2,   -0.5,    0.0,   -0.2,  999.0,  999.0,   -0.0,  999.0,   -0.1,  999.0,   -0.1,   -0.0,   -0.4,  999.0,  999.0,  999.0,  999.0,  999.0,  999.0,    0.1,  999.0,  999.0,  999.0,  999.0,  999.0,  999.0,  999.0,  999.0,  999.0,  999.0,  999.0,  999.0,  999.0,  999.0,    0.1,    0.1,    0.1,    0.1,  999.0,    0.1,  999.0,  999.0
1993/08/07 11:10,    0.2,   -0.2,   -0.7,   -0.6,   -0.8,   -1.0,   -0.9,   -0.7,   -0.3,   -0.2,   -0.3,   -0.3,   -0.5,   -0.5,   -0.3,   -0.3,   -0.2,    0.0,  999.0,  999.0,   -0.2,    0.2,  999.0,  999.0,  999.0,   -0.1,   -0.1,   -0.4,  999.0,  999.0,  999.0,  999.0,  999.0,  999.0,  999.0,  999.0,  999.0,  999.0,  999.0,  999.0,  999.0,   -0.7,    1.9,  999.0,  999.0,  999.0,  999.0,  999.0,  999.0,  999.0,  999.0,  999.0,  999.0,    0.1,  999.0,  999.0,  999.0,  999.0
1993/08/07 11:20,   -0.8,   -0.5,   -1.1,   -0.6,   -0.6,   -0.4,   -0.3,   -0.3,   -0.1,   -0.0,    0.2,    0.3,    0.4,    0.4,    0.2,    0.3,    0.2,  999.0,  999.0,  999.0,    0.0,  999.0,  999.0,  999.0,   -0.0,  999.0,   -0.2,    0.0,  999.0,  999.0,  999.0,  999.0,  999.0,  999.0,  999.0,  999.0,  999.0,  999.0,  999.0,  999.0,  999.0,  999.0,  999.0,  999.0,  999.0,  999.0,  999.0,  999.0,  999.0,  999.0,  999.0,   -0.0,  999.0,  999.0,  999.0,  999.0,  999.0,  999.0
1993/08/07 11:30,    0.1,    1.2,    0.8,    0.2,   -1.1,   -1.3,   -0.8,   -0.4,   -0.3,    0.1,    0.3,    0.4,    0.4,    0.5,    0.7,    0.5,  999.0,  999.0,    1.2,  999.0,  999.0,  999.0,  999.0,  999.0,  999.0,  999.0,    0.0,    0.0,  999.0,  999.0,  999.0,  999.0,  999.0,  999.0,  999.0,  999.0,  999.0,  999.0,  999.0,  999.0,  999.0,  999.0,  999.0,  999.0,  999.0,  999.0,  999.0,  999.0,  999.0,  999.0,  999.0,  999.0,  999.0,  999.0,   -0.1,  999.0,  999.0,  999.0
1993/08/07 11:40,    1.1,    1.2,    1.2,    1.2,    1.5,    1.0,    0.8,    0.6,    0.8,    0.6,    0.3,    0.3,   -0.2,   -0.1,   -0.2,   -0.1,   -0.2,  999.0,  999.0,   -0.1,  999.0,   -0.2,  999.0,  999.0,  999.0,   -0.4,   -0.3,  999.0,  999.0,  999.0,  999.0,  999.0,  999.0,  999.0,  999.0,  999.0,  999.0,  999.0,  999.0,  999.0,  999.0,  999.0,  999.0,  999.0,  999.0,  999.0,  999.0,  999.0,  999.0,  999.0,  999.0,   -0.1,  999.0,  999.0,  999.0,  999.0,  999.0,  999.0
1993/08/07 11:50,    0.4,    0.2,    0.4,   -0.1,    0.0,   -0.1,   -0.3,   -0.5,   -0.2,   -0.1,   -0.3,    0.0,    0.2,   -0.1,   -0.0,   -0.1,   -0.2,   -0.1,   -0.0,  999.0,   -0.1,  999.0,  999.0,    0.1,   -1.1,   -0.5,   -0.6,   -0.6,  999.0,  999.0,  999.0,  999.0,  999.0,  999.0,  999.0,  999.0,  999.0,    0.1,  999.0,  999.0,  999.0,  999.0,  999.0,  999.0,  999.0,  999.0,   -0.1,   -0.2,  999.0,  999.0,  999.0,  999.0,  999.0,  999.0,  999.0,  999.0,  999.0,  999.0
1993/08/07 12:00,    0.8,    0.8,    0.3,    0.2,    0.5,    0.5,    0.3,    0.2,   -0.1,    0.0,    0.1,    0.2,    0.1,    0.5,    0.3,    0.2,    0.1,    0.1,   -0.2,   -0.3,   -0.1,   -0.3,   -0.5,   -0.4,   -0.4,   -0.2,   -0.3,   -0.4,   -0.7,   -0.8,  999.0,  999.0,  999.0,  999.0,  999.0,  999.0,  999.0,   -1.0,  999.0,  999.0,  999.0,  999.0,  999.0,  999.0,  999.0,  999.0,  999.0,  999.0,  999.0,  999.0,  999.0,  999.0,   -0.4,  999.0,   -0.4,   -0.4,  999.0,  999.0
1993/08/07 12:10,    0.4,    0.8,    1.1,    1.1,    0.8,    0.9,    0.7,   -0.1,   -0.1,    0.3,    0.2,    0.2,    0.1,   -0.1,   -0.2,   -0.2,   -0.1,   -0.2,   -0.1,   -0.1,   -0.3,   -0.3,   -0.6,   -0.6,   -0.1,   -0.0,   -0.2,   -0.2,  999.0,  999.0,  999.0,  999.0,  999.0,  999.0,  999.0,  999.0,  999.0,  999.0,  999.0,  999.0,  999.0,  999.0,    0.1,   -0.0,   -0.5,  999.0,  999.0,  999.0,  999.0,  999.0,  999.0,  999.0,   -0.4,  999.0,  999.0,  999.0,   -0.4,  999.0
1993/08/07 12:20,   -1.2,   -1.5,   -0.5,   -1.3,   -1.1,   -1.2,   -1.3,   -1.0,   -0.6,   -0.2,   -0.1,   -0.1,   -0.2,   -0.2,   -0.2,   -0.2,   -0.1,    0.0,    0.0,   -0.2,  999.0,  999.0,  999.0,  999.0,   -0.1,   -0.2,   -0.2,   -0.3,  999.0,  999.0,  999.0,  999.0,  999.0,  999.0,  999.0,  999.0,  999.0,  999.0,  999.0,  999.0,  999.0,  999.0,   -0.4,  999.0,  999.0,  999.0,  999.0,  999.0,  999.0,  999.0,  999.0,  999.0,  999.0,  999.0,  999.0,  999.0,  999.0,  999.0
1993/08/07 12:30,   -1.9,   -0.5,   -0.9,   -1.0,   -1.0,   -1.2,   -0.6,   -0.5,   -0.3,   -0.3,   -0.2,   -0.3,   -0.4,   -0.3,   -0.5,   -0.5,   -0.3,   -0.2,   -0.1,  999.0,  999.0,   -0.4,   -0.1,  999.0,   -0.2,   -0.1,  999.0,  999.0,  999.0,  999.0,  999.0,  999.0,  999.0,   -0.0,  999.0,  999.0,  999.0,  999.0,  999.0,  999.0,  999.0,  999.0,  999.0,  999.0,  999.0,  999.0,  999.0,  999.0,  999.0,  999.0,  999.0,   -0.4,  999.0,   -0.4,  999.0,   -0.4,    0.1,  999.0
1993/08/07 12:40,   -0.9,   -1.4,   -1.9,   -1.6,   -1.5,   -1.0,   -0.6,   -0.4,   -0.1,    0.0,    0.0,    0.1,    0.1,    0.2,    0.3,    0.3,    0.2,    0.0,  999.0,  999.0,  999.0,   -0.1,  999.0,    0.1,   -0.3,   -0.3,   -0.3,  999.0,  999.0,   -0.2,  999.0,  999.0,  999.0,  999.0,  999.0,  999.0,  999.0,  999.0,  999.0,  999.0,  999.0,  999.0,  999.0,  999.0,  999.0,  999.0,  999.0,   -0.2,  999.0,  999.0,   -0.1,  999.0,   -0.1,   -0.1,  999.0,   -0.1,  999.0,  999.0
1993/08/07 12:50,  999.0,   -1.0,   -0.2,   -0.7,    0.2,    0.3,    0.5,    0.5,    0.2,    0.1,    0.1,    0.1,    0.0,    0.1,    0.3,    0.3,    0.1,    0.1,   -0.0,   -0.2,    0.2,  999.0,  999.0,   -0.2,   -0.3,   -0.3,   -0.1,    0.0,   -0.2,  999.0,   -0.3,  999.0,  999.0,  999.0,  999.0,  999.0,  999.0,  999.0,  999.0,  999.0,  999.0,  999.0,  999.0,  999.0,  999.0,  999.0,  999.0,  999.0,  999.0,  999.0,  999.0,   -0.9,  999.0,  999.0,  999.0,  999.0,  999.0,   -0.1
1993/08/07 13:00,   -0.3,   -0.5,   -0.2,    0.1,    0.4,   -0.0,   -0.2,   -0.2,    0.0,   -0.1,   -0.1,   -0.2,   -0.3,   -0.3,   -0.1,    0.0,   -0.1,   -0.1,    0.0,    0.0,    0.3,    0.1,   -0.1,    0.0,    0.0,   -0.1,   -0.0,   -0.1,  999.0,    0.0,  999.0,   -0.1,  999.0,  999.0,  999.0,  999.0,  999.0,  999.0,    0.1,  999.0,  999.0,  999.0,  999.0,  999.0,  999.0,  999.0,  999.0,  999.0,  999.0,   -0.1,  999.0,  999.0,  999.0,  999.0,  999.0,  999.0,  999.0,  999.0
1993/08/07 13:10,   -0.3,   -0.5,   -1.3,   -0.8,   -0.5,   -0.4,   -0.1,    0.2,    0.0,   -0.1,    0.0,    0.1,   -0.0,    0.0,    0.0,    0.1,    0.1,    0.1,  999.0,    0.2,  999.0,   -0.7,  999.0,    0.2,    0.1,    0.1,    0.0,  999.0,  999.0,    0.0,   -0.3,  999.0,  999.0,  999.0,  999.0,  999.0,  999.0,  999.0,  999.0,  999.0,    0.1,  999.0,  999.0,  999.0,  999.0,  999.0,  999.0,  999.0,  999.0,  999.0,  999.0,  999.0,  999.0,  999.0,  999.0,  999.0,  999.0,  999.0
1993/08/07 13:20,   -0.5,   -0.2,   -0.7,   -0.8,   -0.9,   -0.5,   -0.6,   -0.3,   -0.0,   -0.0,   -0.5,   -0.4,   -0.3,   -0.3,   -0.2,   -0.3,   -0.3,   -0.5,   -0.5,  999.0,   -0.6,    0.0,   -0.3,   -0.2,   -0.3,   -0.1,   -0.2,    0.2,  999.0,    0.3,   -0.1,  999.0,  999.0,  999.0,  999.0,  999.0,  999.0,  999.0,  999.0,  999.0,  999.0,  999.0,  999.0,    0.0,  999.0,  999.0,  999.0,  999.0,    0.1,  999.0,    0.1,  999.0,  999.0,    0.1,  999.0,  999.0,    0.1,  999.0
1993/08/07 13:30,   -0.5,   -0.4,   -0.4,   -0.3,   -0.5,   -0.4,   -0.3,   -0.2,   -0.2,   -0.2,   -0.2,   -0.2,   -0.2,   -0.2,   -0.2,   -0.2,   -0.3,   -0.2,   -0.2,   -0.5,   -0.5,   -0.2,   -0.4,   -0.4,   -0.4,   -0.2,   -0.1,   -0.3,    0.2,  999.0,  999.0,  999.0,  999.0,  999.0,  999.0,  999.0,  999.0,  999.0,  999.0,  999.0,  999.0,  999.0,  999.0,  999.0,  999.0,  999.0,  999.0,  999.0,    0.2,  999.0,    0.1,  999.0,  999.0,  999.0,  999.0,  999.0,    0.1,  999.0
1993/08/07 13:40,   -0.1,   -0.4,   -0.4,   -0.3,   -0.4,   -0.3,   -0.3,   -0.3,   -0.4,   -0.4,   -0.3,   -0.4,   -0.5,   -0.4,   -0.2,   -0.3,   -0.3,   -0.2,   -0.3,   -0.3,   -0.5,   -0.3,   -0.3,   -0.4,   -0.2,   -0.2,   -0.3,   -0.2,  999.0,  999.0,  999.0,  999.0,  999.0,  999.0,  999.0,  999.0,  999.0,  999.0,   -0.4,  999.0,  999.0,  999.0,  999.0,  999.0,  999.0,  999.0,  999.0,   -0.1,  999.0,   -0.1,  999.0,  999.0,  999.0,  999.0,  999.0,  999.0,  999.0,  999.0
1993/08/07 13:50,   -0.4,   -0.3,   -0.1,   -0.0,    0.1,    0.1,    0.1,    0.2,    0.3,    0.2,    0.2,    0.2,   -0.0,    0.0,   -0.0,   -0.0,   -0.1,   -0.1,   -0.0,   -0.1,   -0.2,   -0.1,    0.1,    0.1,    0.3,   -0.1,   -0.0,    0.0,    0.1,  999.0,  999.0,  999.0,  999.0,  999.0,  999.0,  999.0,  999.0,  999.0,  999.0,  999.0,  999.0,  999.0,  999.0,  999.0,  999.0,  999.0,  999.0,  999.0,  999.0,  999.0,  999.0,  999.0,  999.0,  999.0,  999.0,  999.0,  999.0,  999.0
1993/08/07 14:00,   -0.1,   -0.3,   -0.5,   -0.6,   -0.6,   -0.5,   -0.3,   -0.0,    0.2,    0.3,    0.1,    0.3,    0.3,    0.3,    0.1,   -0.0,    0.1,    0.1,    0.5,    0.2,    0.4,    0.5,    0.4,    0.6,    0.4,    0.4,    0.2,    0.1,  999.0,  999.0,  999.0,    0.0,  999.0,  999.0,  999.0,  999.0,  999.0,   -0.1,  999.0,  999.0,  999.0,  999.0,  999.0,  999.0,  999.0,   -0.2,   -0.2,  999.0,  999.0,  999.0,  999.0,   -0.2,    0.3,  999.0,   -0.0,  999.0,   -0.2,  999.0
1993/08/07 14:10,    0.0,   -0.1,   -0.2,   -0.1,   -0.0,    0.2,    0.3,    0.2,    0.3,    0.1,    0.1,   -0.1,   -0.1,   -0.1,   -0.2,   -0.1,   -0.1,   -0.0,    0.1,    0.2,    0.1,    0.2,    0.1,    0.2,   -0.1,   -0.1,   -0.2,   -0.1,  999.0,  999.0,  999.0,  999.0,  999.0,  999.0,  999.0,  999.0,  999.0,  999.0,  999.0,  999.0,  999.0,  999.0,  999.0,  999.0,  999.0,  999.0,  999.0,  999.0,   -0.1,    0.1,  999.0,  999.0,  999.0,  999.0,  999.0,  999.0,  999.0,  999.0
1993/08/07 14:20,   -0.5,   -0.6,   -0.5,   -0.4,   -0.1,   -0.0,   -0.0,   -0.1,   -0.3,   -0.2,   -0.1,   -0.0,   -0.1,   -0.1,   -0.1,   -0.2,   -0.3,   -0.3,   -0.1,   -0.1,   -0.2,   -0.3,   -0.3,   -0.4,   -0.4,   -0.2,   -0.2,   -0.1,  999.0,  999.0,  999.0,  999.0,  999.0,  999.0,  999.0,  999.0,  999.0,  999.0,  999.0,  999.0,  999.0,  999.0,  999.0,  999.0,  999.0,  999.0,  999.0,  999.0,  999.0,  999.0,  999.0,  999.0,  999.0,  999.0,    0.1,  999.0,  999.0,  999.0
1993/08/07 14:30,   -0.1,   -0.3,   -0.3,   -0.3,   -0.1,   -0.1,   -0.2,   -0.3,   -0.3,   -0.3,   -0.2,   -0.4,   -0.2,   -0.2,   -0.2,   -0.2,   -0.1,   -0.2,   -0.2,   -0.1,   -0.2,    0.0,   -0.1,   -0.2,   -0.2,   -0.1,   -0.1,   -0.3,   -0.1,  999.0,  999.0,  999.0,  999.0,  999.0,  999.0,  999.0,   -0.6,  999.0,  999.0,  999.0,  999.0,  999.0,  999.0,  999.0,  999.0,  999.0,  999.0,  999.0,  999.0,  999.0,  999.0,  999.0,  999.0,  999.0,  999.0,  999.0,  999.0,  999.0
1993/08/07 14:40,    0.5,    0.4,    0.2,   -0.1,   -0.1,   -0.3,   -0.4,   -0.3,   -0.1,   -0.0,    0.0,    0.1,    0.0,    0.2,    0.3,    0.2,    0.5,    0.2,    0.4,    0.4,    0.3,    0.4,    0.3,    0.4,    0.3,    0.4,    0.3,   -0.2,  999.0,  999.0,  999.0,  999.0,  999.0,  999.0,  999.0,  999.0,    0.1,  999.0,  999.0,  999.0,  999.0,  999.0,  999.0,   -0.5,  999.0,    0.0,  999.0,  999.0,  999.0,  999.0,  999.0,   -0.1,  999.0,  999.0,  999.0,  999.0,  999.0,  999.0
1993/08/07 14:50,   -0.6,   -0.8,   -0.5,   -0.6,   -0.6,   -0.1,    0.1,    0.1,    0.2,    0.3,    0.4,    0.4,    0.3,    0.4,    0.2,    0.2,    0.0,    0.0,   -0.0,    0.0,   -0.0,    0.4,   -0.0,    0.2,    0.1,    0.0,   -0.1,   -0.1,  999.0,  999.0,  999.0,  999.0,  999.0,  999.0,  999.0,  999.0,  999.0,  999.0,  999.0,   -0.1,  999.0,  999.0,  999.0,  999.0,  999.0,  999.0,  999.0,  999.0,  999.0,  999.0,  999.0,  999.0,  999.0,    0.1,  999.0,  999.0,  999.0,  999.0
1993/08/07 15:00,   -0.9,   -1.1,   -0.6,   -0.4,   -0.7,   -0.2,   -0.2,   -0.5,   -0.3,   -0.0,    0.2,   -0.0,   -0.1,   -0.2,    0.1,   -0.1,   -0.2,   -0.3,   -0.1,   -0.2,    0.1,   -0.1,   -0.0,    0.1,    0.1,   -0.0,   -0.0,   -0.1,    0.3,   -0.7,  999.0,    0.1,  999.0,  999.0,  999.0,  999.0,  999.0,  999.0,    0.7,  999.0,   -0.1,  999.0,  999.0,  999.0,  999.0,  999.0,  999.0,  999.0,  999.0,   -0.1,  999.0,  999.0,   -0.1,   -0.1,  999.0,  999.0,  999.0,  999.0
1993/08/07 15:10,   -0.2,   -0.0,    0.3,    0.2,    0.4,    0.3,    0.3,    0.3,    0.5,    0.5,    0.3,    0.2,    0.0,   -0.0,    0.3,    0.1,   -0.1,    0.1,   -0.1,   -0.1,   -0.2,   -0.3,   -0.2,   -0.2,   -0.3,   -0.2,   -0.2,   -0.4,   -0.5,   -0.4,  999.0,  999.0,  999.0,  999.0,  999.0,  999.0,  999.0,  999.0,  999.0,   -0.4,  999.0,  999.0,  999.0,  999.0,  999.0,   -0.2,  999.0,  999.0,  999.0,  999.0,  999.0,  999.0,  999.0,  999.0,  999.0,  999.0,  999.0,  999.0
1993/08/07 15:20,   -0.3,   -1.0,   -0.1,   -0.2,   -0.3,   -0.2,   -0.1,   -0.1,   -0.1,   -0.1,   -0.1,   -0.0,    0.1,    0.1,    0.1,   -0.0,   -0.3,   -0.4,   -0.5,   -0.7,   -0.7,   -0.5,   -0.1,   -0.2,   -0.1,   -0.1,   -0.2,   -0.1,    0.2,   -0.1,    0.1,  999.0,  999.0,  999.0,  999.0,  999.0,  999.0,  999.0,  999.0,  999.0,  999.0,  999.0,  999.0,  999.0,  999.0,  999.0,  999.0,  999.0,  999.0,  999.0,  999.0,  999.0,  999.0,  999.0,  999.0,  999.0,  999.0,  999.0
1993/08/07 15:30,   -0.1,   -0.4,   -0.1,   -0.3,   -0.4,   -0.4,   -0.2,   -0.1,    0.1,    0.2,    0.3,    0.1,    0.5,    0.1,   -0.4,    0.0,    0.2,    0.1,    0.1,    0.6,    0.5,   -0.9,   -1.7,   -0.1,   -1.9,   -1.5,   -1.4,   -0.7,   -0.2,    1.0,    0.7,    0.3,    0.2,  999.0,    0.0,  999.0,    0.0,   -0.4,  999.0,  999.0,  999.0,  999.0,  999.0,  999.0,  999.0,  999.0,  999.0,  999.0,  999.0,  999.0,  999.0,  999.0,  999.0,  999.0,  999.0,  999.0,  999.0,  999.0
1993/08/07 15:40,    0.0,   -0.0,    0.2,    0.2,   -0.1,   -0.1,   -0.1,   -0.0,   -0.1,   -0.3,   -0.4,   -0.4,   -0.7,   -0.6,   -0.5,   -0.5,   -0.6,   -1.3,   -0.7,   -0.8,   -0.7,   -1.1,   -0.6,   -0.3,   -0.3,   -0.5,   -0.5,   -0.5,   -0.5,   -0.4,   -0.4,  999.0,  999.0,  999.0,  999.0,  999.0,   -0.1,   -0.4,  999.0,  999.0,  999.0,  999.0,  999.0,  999.0,  999.0,    0.7,    0.8,  999.0,  999.0,  999.0,  999.0,  999.0,  999.0,    1.2,  999.0,  999.0,    1.2,  999.0
1993/08/07 15:50,    0.4,    0.1,    0.2,    0.3,    0.4,    0.6,    0.5,    0.5,    0.7,    0.5,    0.8,    0.3,    0.3,   -0.1,   -0.5,    0.1,   -0.4,   -0.1,    0.1,   -0.4,   -0.2,    0.0,    0.3,    0.7,    0.6,    0.8,    0.8,    1.0,    1.0,    0.3,    0.3,    0.4,  999.0,  999.0,  999.0,  999.0,  999.0,  999.0,  999.0,  999.0,  999.0,  999.0,  999.0,  999.0,    0.0,  999.0,  999.0,  999.0,  999.0,  999.0,  999.0,    1.1,  999.0,  999.0,  999.0,  999.0,  999.0,  999.0
1993/08/07 16:00,   -0.0,    0.1,    0.2,    0.2,    0.2,    0.2,    0.3,    0.2,    0.1,    0.3,    0.1,   -0.0,   -0.0,   -0.2,   -0.2,   -0.4,   -0.2,   -0.2,   -0.2,   -0.3,   -0.1,   -0.2,   -0.4,   -0.4,   -0.2,   -0.3,   -0.3,   -0.2,   -0.3,  999.0,  999.0,  999.0,  999.0,  999.0,  999.0,  999.0,   -0.8,    0.4,  999.0,  999.0,  999.0,  999.0,  999.0,  999.0,  999.0,  999.0,  999.0,  999.0,    0.4,  999.0,  999.0,  999.0,  999.0,  999.0,  999.0,  999.0,  999.0,  999.0
1993/08/07 16:10,   -0.0,   -0.3,   -0.2,   -0.1,   -0.1,   -0.1,   -0.0,    0.1,   -0.1,   -0.3,   -0.4,   -0.3,   -0.3,   -0.3,   -0.4,   -0.2,   -0.2,    0.2,   -0.5,   -0.5,   -0.6,   -0.1,   -0.0,   -0.2,   -0.1,   -0.0,   -0.1,   -0.2,  999.0,  999.0,  999.0,  999.0,  999.0,  999.0,  999.0,  999.0,    0.1,  999.0,  999.0,  999.0,  999.0,  999.0,  999.0,  999.0,  999.0,  999.0,  999.0,  999.0,  999.0,  999.0,  999.0,  999.0,    0.6,  999.0,  999.0,  999.0,  999.0,  999.0
1993/08/07 16:20,   -0.1,   -0.1,    0.1,    0.1,    0.1,    0.1,    0.0,    0.2,    0.1,    0.2,    0.2,    0.1,    0.1,   -0.0,    0.1,    0.0,    0.0,    0.0,    0.1,   -0.0,    0.1,   -0.1,   -0.1,   -0.1,   -0.1,    0.1,   -0.0,   -0.0,   -0.0,  999.0,  999.0,  999.0,  999.0,  999.0,  999.0,  999.0,  999.0,   -0.1,  999.0,  999.0,  999.0,  999.0,  999.0,  999.0,  999.0,  999.0,  999.0,  999.0,  999.0,  999.0,  999.0,   -0.0,  999.0,  999.0,  999.0,  999.0,  999.0,  999.0
1993/08/07 16:30,   -0.0,    0.0,    0.1,    0.1,    0.1,    0.2,    0.0,    0.1,    0.1,    0.0,    0.0,    0.1,    0.2,    0.4,    0.3,    0.1,    0.1,   -0.0,   -0.1,   -0.1,   -0.1,   -0.2,   -0.2,   -0.2,   -0.3,   -0.4,   -0.4,   -0.2,   -0.6,  999.0,  999.0,  999.0,  999.0,  999.0,  999.0,  999.0,  999.0,   -0.8,  999.0,  999.0,    0.1,  999.0,  999.0,  999.0,  999.0,  999.0,  999.0,  999.0,  999.0,  999.0,  999.0,   -1.2,  999.0,  999.0,  999.0,  999.0,  999.0,  999.0
1993/08/07 16:40,   -0.0,    0.1,   -0.1,    0.1,    0.2,    0.2,    0.2,    0.2,    0.1,    0.1,    0.2,    0.3,    0.3,    0.1,    0.0,   -0.1,   -0.1,   -0.2,   -0.1,   -0.3,   -0.6,   -0.5,   -0.4,   -0.3,   -0.3,   -0.3,   -0.3,    0.0,  999.0,  999.0,  999.0,    0.0,  999.0,  999.0,  999.0,  999.0,  999.0,   -0.2,  999.0,  999.0,  999.0,  999.0,   -0.6,  999.0,   -0.1,  999.0,  999.0,  999.0,  999.0,  999.0,  999.0,  999.0,  999.0,  999.0,  999.0,   -1.2,  999.0,  999.0
1993/08/07 16:50,   -0.0,    0.0,    0.0,    0.0,    0.1,    0.1,    0.2,    0.3,    0.3,    0.3,    0.3,    0.3,    0.2,    0.4,    0.2,   -0.0,    0.1,    0.1,   -0.1,   -0.3,   -0.4,   -0.4,   -0.3,   -0.4,   -0.4,   -0.4,   -0.5,  999.0,   -0.9,   -1.0,   -1.0,   -1.0,   -1.0,   -0.9,   -0.9,   -1.1,   -1.2,   -1.1,   -0.6,  999.0,  999.0,  999.0,  999.0,   -0.3,    0.4,  999.0,  999.0,  999.0,  999.0,  999.0,  999.0,  999.0,  999.0,  999.0,  999.0,  999.0,  999.0,  999.0
1993/08/07 17:00,    0.2,    0.1,    0.1,   -0.0,   -0.1,    0.0,    0.1,    0.3,    0.3,    0.4,    0.4,    0.4,    0.4,    0.3,    0.2,    0.0,    0.0,    0.1,    0.1,   -0.2,   -0.3,   -0.3,   -0.4,   -0.5,   -0.6,   -0.6,   -0.6,   -0.7,   -0.3,   -0.4,   -0.7,   -0.7,   -0.9,   -0.6,   -1.1,   -0.3,   -0.4,    0.2,   -0.2,   -0.3,    0.3,  999.0,  999.0,  999.0,    0.2,   -0.0,  999.0,  999.0,   -1.6,  999.0,  999.0,  999.0,  999.0,  999.0,  999.0,  999.0,  999.0,  999.0
1993/08/07 17:10,   -0.0,   -0.1,   -0.1,   -0.0,   -0.0,   -0.2,   -0.2,   -0.0,    0.1,    0.1,    0.2,    0.2,    0.3,    0.2,    0.2,    0.1,    0.1,    0.3,    0.2,    0.0,   -0.0,    0.0,    0.1,   -0.3,   -0.3,   -0.2,   -0.0,   -0.6,   -0.0,   -0.5,  999.0,  999.0,   -0.1,   -0.0,    1.1,    0.5,    0.1,    0.7,    0.3,   -0.3,  999.0,   -0.9,  999.0,    0.8,  999.0,  999.0,  999.0,  999.0,  999.0,  999.0,  999.0,  999.0,  999.0,  999.0,  999.0,  999.0,  999.0,  999.0
1993/08/07 17:20,    0.0,   -0.0,   -0.1,   -0.1,   -0.3,   -0.3,   -0.2,   -0.3,   -0.3,   -0.3,   -0.3,   -0.4,   -0.4,   -0.5,   -0.4,   -0.4,   -0.3,   -0.2,   -0.2,   -0.2,   -0.2,   -0.2,   -0.3,   -0.8,   -0.6,   -0.4,   -0.5,   -0.5,   -0.4,   -0.1,  999.0,   -0.3,   -0.5,   -0.1,   -0.1,    0.4,   -0.1,   -0.2,   -0.3,    0.1,    0.1,   -0.2,   -0.1,  999.0,   -0.1,    0.4,  999.0,    0.5,  999.0,  999.0,  999.0,  999.0,  999.0,    0.8,    0.7,  999.0,  999.0,  999.0
1993/08/07 17:30,    0.0,    0.1,    0.1,    0.0,    0.0,    0.0,   -0.0,   -0.1,   -0.0,   -0.1,    0.0,    0.2,    0.2,    0.3,    0.3,    0.3,    0.6,    0.7,    0.7,    0.4,    0.2,    0.1,    0.0,    0.1,   -0.2,   -1.1,   -0.3,   -0.7,   -0.9,  999.0,  999.0,  999.0,  999.0,  999.0,    0.2,    0.1,    0.1,   -0.1,    0.6,    0.4,   -0.1,    0.1,  999.0,  999.0,  999.0,  999.0,  999.0,  999.0,  999.0,  999.0,  999.0,  999.0,  999.0,  999.0,  999.0,  999.0,  999.0,  999.0
1993/08/07 17:40,    0.1,    0.1,    0.2,    0.2,    0.2,    0.2,    0.1,   -0.0,   -0.1,   -0.1,    0.1,    0.2,    0.1,    0.2,    0.2,    0.2,    0.2,    0.1,   -0.0,   -0.2,   -0.4,   -0.9,   -0.8,   -0.6,   -0.5,   -0.4,   -0.8,   -0.3,   -0.3,   -0.2,   -0.6,    0.2,    0.5,    0.4,   -0.4,   -0.2,   -0.5,    0.3,   -0.1,   -0.5,   -1.5,    0.1,    0.0,   -0.6,  999.0,    0.6,  999.0,  999.0,  999.0,  999.0,  999.0,  999.0,  999.0,  999.0,  999.0,  999.0,  999.0,  999.0
1993/08/07 17:50,    0.3,   -0.0,   -0.1,    0.2,    0.4,    0.3,    0.4,    0.7,    0.7,    0.7,    0.7,    0.4,    0.4,    0.3,    0.1,   -0.1,   -0.2,   -0.6,   -0.8,   -0.7,   -0.7,   -0.9,   -0.5,   -0.3,   -0.8,   -0.6,   -0.5,   -0.4,   -0.4,   -0.2,    0.1,   -0.2,    1.1,  999.0,  999.0,  999.0,  999.0,    0.2,    0.0,   -0.1,   -0.3,  999.0,  999.0,  999.0,  999.0,  999.0,  999.0,  999.0,  999.0,  999.0,  999.0,  999.0,  999.0,  999.0,  999.0,  999.0,   -3.1,  999.0
1993/08/07 18:00,   -0.1,   -0.4,   -0.2,   -0.3,   -0.2,   -0.2,   -0.7,   -0.9,   -0.7,   -0.4,    0.0,   -1.1,   -0.8,    1.4,   -1.1,   -0.8,   -0.4,   -0.1,    0.1,   -0.1,    0.3,    0.2,    0.1,    0.1,    0.3,    0.4,    0.6,    0.3,    0.7,    0.7,    0.7,    0.3,  999.0,   -0.0,  999.0,  999.0,  999.0,  999.0,  999.0,    0.7,  999.0,  999.0,  999.0,   -0.0,  999.0,  999.0,  999.0,  999.0,  999.0,  999.0,  999.0,  999.0,  999.0,  999.0,    2.6,  999.0,  999.0,  999.0
1993/08/07 18:10,    0.4,    0.2,    0.2,    0.1,    0.2,    0.2,   -0.0,   -0.3,   -0.8,   -1.6,   -1.6,   -1.2,   -0.9,   -0.3,   -0.5,   -0.3,   -0.5,   -0.3,    0.0,   -0.2,    0.4,    0.0,   -0.7,   -0.4,   -1.1,    0.1,    0.4,    0.5,    0.7,    0.3,    0.4,    1.5,    1.1,    2.5,    3.6,  999.0,  999.0,    0.6,    0.4,    0.4,    0.7,    1.3,  999.0,  999.0,  999.0,  999.0,  999.0,  999.0,    1.5,  999.0,  999.0,  999.0,  999.0,  999.0,  999.0,  999.0,  999.0,  999.0
1993/08/07 18:20,    0.2,    0.2,   -0.1,    0.5,    0.4,    0.4,    0.0,   -0.1,   -0.0,   -0.9,   -2.3,   -2.8,   -1.9,   -1.7,   -0.5,   -0.2,   -0.2,    0.9,    1.1,    0.7,   -0.2,   -2.2,   -1.1,   -0.8,   -0.8,   -0.9,   -1.4,   -1.6,   -1.2,   -0.5,   -0.9,   -1.0,    0.2,   -4.6,  999.0,   -3.1,   -2.9,   -2.5,   -2.8,   -2.6,  999.0,    2.2,  999.0,  999.0,  999.0,  999.0,  999.0,  999.0,  999.0,  999.0,  999.0,  999.0,   -2.8,  999.0,   -2.8,  999.0,  999.0,  999.0
1993/08/07 18:30,  999.0,  999.0,  999.0,    0.1,  999.0,  999.0,   -2.7,   -2.6,   -2.8,   -1.1,   -1.2,   -1.3,   -1.3,   -1.1,   -2.6,   -2.2,   -2.3,   -0.9,   -1.2,   -0.8,   -0.5,   -2.9,   -1.6,   -0.3,    0.3,   -0.4,   -0.3,   -0.3,    0.9,    0.1,    0.5,   -0.5,   -0.4,  999.0,  999.0,  999.0,  999.0,  999.0,  999.0,  999.0,  999.0,  999.0,  999.0,  999.0,  999.0,  999.0,  999.0,  999.0,  999.0,  999.0,  999.0,  999.0,  999.0,  999.0,  999.0,  999.0,  999.0,  999.0
1993/08/07 18:40,   -4.3,   -6.7,   -5.0,   -6.4,   -6.1,   -4.0,   -4.3,   -3.4,   -3.5,   -3.6,   -3.5,   -3.5,   -3.6,   -3.6,   -2.7,   -2.9,   -2.1,   -2.2,   -2.2,   -1.5,   -0.9,   -1.2,   -1.0,   -1.5,   -1.7,   -1.7,   -1.6,   -0.7,   -0.2,   -0.3,   -0.2,    1.2,    0.1,    0.2,    0.1,  999.0,   -0.1,  999.0,  999.0,  999.0,  999.0,  999.0,  999.0,  999.0,  999.0,  999.0,  999.0,  999.0,  999.0,  999.0,  999.0,  999.0,  999.0,    1.7,  999.0,  999.0,  999.0,  999.0
1993/08/07 18:50,   -3.4,   -3.3,   -3.6,   -3.9,   -3.7,   -3.3,   -3.3,   -3.4,   -4.6,   -4.1,   -3.7,   -3.8,   -4.2,   -5.0,   -4.9,   -4.9,   -4.5,   -4.3,   -4.0,   -4.5,   -3.0,   -3.2,   -2.9,   -3.5,   -2.6,   -2.3,   -1.3,   -1.8,   -1.2,   -1.8,   -3.0,   -1.9,   -0.9,   -2.3,   -2.8,   -1.0,   -1.0,   -1.7,   -2.0,   -2.5,  999.0,   -2.6,  999.0,  999.0,  999.0,  999.0,  999.0,  999.0,  999.0,  999.0,  999.0,  999.0,  999.0,  999.0,  999.0,  999.0,  999.0,  999.0
1993/08/07 19:00,   -2.5,   -3.7,   -3.5,   -3.9,   -3.0,   -3.6,   -3.2,   -2.4,   -1.4,   -1.4,   -0.4,   -0.0,    0.3,    0.5,    0.3,    1.2,    0.6,    0.5,    0.1,    0.2,    0.3,    0.4,    0.1,    0.4,    0.5,    0.4,    0.4,    0.8,    0.7,    1.0,    0.7,    0.3,    0.1,  999.0,  999.0,    1.3,  999.0,  999.0,  999.0,  999.0,   -0.6,  999.0,    1.6,  999.0,  999.0,  999.0,  999.0,  999.0,  999.0,  999.0,  999.0,  999.0,  999.0,  999.0,  999.0,  999.0,  999.0,  999.0
1993/08/07 19:10,   -0.2,   -0.9,    0.5,   -1.3,   -0.9,   -0.2,  999.0,  999.0,    0.0,   -0.6,   -1.2,   -1.0,   -0.2,    0.1,    0.0,   -0.1,   -0.4,   -0.3,   -0.0,   -0.3,   -0.3,   -0.3,   -0.7,   -0.8,   -0.7,   -0.7,    0.0,   -1.4,   -2.5,   -1.8,   -1.7,   -1.7,   -3.1,   -3.1,   -3.4,   -3.6,   -3.2,    0.9,  999.0,  999.0,  999.0,  999.0,    1.5,  999.0,  999.0,  999.0,  999.0,  999.0,  999.0,  999.0,    1.6,  999.0,  999.0,    1.6,  999.0,    1.6,  999.0,  999.0
1993/08/07 19:20,  999.0,  999.0,   -1.5,  999.0,    0.1,  999.0,  999.0,   -0.3,   -0.5,   -0.7,   -0.6,   -0.2,    0.4,    0.3,    0.3,    0.8,    1.1,    1.4,    1.7,    1.4,    1.5,    0.9,    0.7,    0.9,    1.0,    0.8,    1.0,    0.7,    0.7,    0.7,    0.7,    1.0,    0.8,    0.6,  999.0,  999.0,  999.0,  999.0,  999.0,  999.0,  999.0,  999.0,  999.0,  999.0,  999.0,  999.0,  999.0,  999.0,  999.0,  999.0,  999.0,  999.0,  999.0,  999.0,  999.0,  999.0,  999.0,  999.0
1993/08/07 19:30,    0.3,    0.4,    0.4,    0.8,    0.5,    0.6,  999.0,  999.0,    0.3,    0.1,    0.1,   -0.6,    0.2,   -1.0,   -1.3,   -1.4,   -1.6,   -1.4,   -1.5,   -1.7,   -1.2,   -1.9,   -3.1,   -2.6,   -2.0,   -1.4,   -1.2,   -0.6,   -0.0,    0.4,   -0.6,   -0.4,   -1.0,   -0.2,   -0.2,    0.6,  999.0,  999.0,  999.0,  999.0,  999.0,  999.0,  999.0,   -0.6,  999.0,  999.0,  999.0,  999.0,  999.0,  999.0,  999.0,  999.0,  999.0,    1.0,  999.0,  999.0,  999.0,  999.0
1993/08/07 19:40,   -0.6,   -1.0,   -0.1,  999.0,    0.6,   -0.3,  999.0,  999.0,   -7.0,   -1.4,   -2.2,   -2.7,   -1.5,   -3.1,   -1.8,   -2.1,   -1.5,   -2.6,   -3.5,   -2.5,   -2.1,   -1.8,   -1.0,   -0.8,   -0.7,   -0.5,   -0.5,   -0.3,   -0.6,   -0.5,   -0.7,   -0.2,   -0.4,   -0.5,   -0.9,   -0.7,   -0.9,  999.0,  999.0,  999.0,  999.0,  999.0,  999.0,  999.0,  999.0,  999.0,  999.0,  999.0,  999.0,  999.0,   -0.6,  999.0,  999.0,  999.0,    0.7,  999.0,  999.0,   -0.4
1993/08/07 19:50,  999.0,    0.2,    0.6,    0.3,   -0.4,   -0.3,   -0.1,    0.4,   -0.1,    0.2,    0.0,    0.1,   -0.0,   -0.2,   -0.3,   -0.3,   -0.1,    0.0,   -0.2,   -0.1,   -0.2,   -0.2,   -0.3,   -0.1,   -0.3,   -0.4,   -0.4,   -0.3,   -0.2,   -0.4,   -0.5,   -0.3,   -0.3,   -0.3,    0.0,   -0.0,   -0.1,   -0.0,   -0.3,   -0.1,   -0.4,  999.0,  999.0,  999.0,  999.0,    0.0,  999.0,   -0.1,  999.0,  999.0,  999.0,  999.0,  999.0,  999.0,  999.0,  999.0,  999.0,    0.2
1993/08/07 20:00,   -0.5,  999.0,   -0.2,    0.3,    0.5,    0.1,  999.0,  999.0,    1.1,    0.4,   -0.0,   -0.1,   -0.1,   -0.4,   -0.4,   -0.3,   -0.2,   -0.1,   -0.1,   -0.2,   -0.3,   -0.6,   -0.7,   -0.6,   -0.7,   -0.6,   -0.5,    0.1,   -0.2,   -0.0,   -0.1,    0.0,    0.2,   -0.0,    0.2,    0.4,    0.4,    0.9,  999.0,    1.2,    0.1,    0.6,  999.0,  999.0,    0.3,   -0.0,  999.0,  999.0,  999.0,  999.0,    0.2,  999.0,  999.0,  999.0,  999.0,  999.0,  999.0,  999.0
1993/08/07 20:10,    0.5,    0.2,    0.3,    0.6,    0.7,  999.0,  999.0,    0.9,  999.0,  999.0,    0.3,    0.2,   -0.1,   -0.1,    0.2,    0.5,    0.6,    0.6,    0.7,    0.3,    0.1,   -0.0,   -0.2,   -0.4,   -0.5,   -0.6,   -0.7,   -0.6,   -0.6,   -0.6,   -0.6,   -0.8,   -0.6,   -0.5,   -0.4,  999.0,   -0.7,   -0.8,  999.0,  999.0,  999.0,  999.0,   -0.1,  999.0,    0.1,   -0.1,  999.0,  999.0,  999.0,  999.0,  999.0,  999.0,   -0.1,   -0.2,  999.0,  999.0,  999.0,   -0.1
1993/08/07 20:20,   -0.9,    0.5,    0.2,   -0.1,   -0.1,    0.3,    0.2,  999.0,  999.0,  999.0,    0.2,   -0.0,   -0.3,   -0.5,   -0.3,   -0.1,   -0.2,   -0.1,   -0.1,   -0.1,   -0.1,   -0.1,   -0.1,   -0.2,   -0.4,   -0.5,   -0.4,    0.2,   -0.6,   -0.5,   -1.0,   -1.4,   -0.6,   -0.4,   -0.5,    0.0,   -0.6,   -0.8,   -0.5,  999.0,  999.0,  999.0,  999.0,   -1.0,    1.4,  999.0,  999.0,  999.0,  999.0,  999.0,  999.0,  999.0,  999.0,  999.0,  999.0,  999.0,  999.0,  999.0
1993/08/07 20:30,    0.4,   -0.0,    0.9,    0.2,  999.0,   -0.0,   -0.9,  999.0,  999.0,  999.0,    0.0,   -0.3,   -0.5,   -0.3,   -0.2,    0.0,   -0.4,   -0.4,   -0.4,   -0.7,   -1.9,   -0.1,   -0.5,   -0.6,   -0.2,   -0.6,   -0.4,   -0.6,   -0.4,   -1.2,   -1.5,   -0.7,   -1.0,   -0.7,   -0.8,   -0.9,   -1.3,   -1.8,   -1.1,  999.0,  999.0,  999.0,  999.0,  999.0,  999.0,  999.0,  999.0,  999.0,  999.0,  999.0,  999.0,  999.0,  999.0,  999.0,  999.0,  999.0,  999.0,  999.0
1993/08/07 20:40,    0.6,    0.5,   -0.1,    0.3,    0.6,    0.7,   -0.1,   -0.2,    0.4,   -0.2,   -0.4,   -0.9,   -0.6,   -0.3,   -0.2,   -0.1,   -0.1,   -0.2,   -0.2,   -0.3,   -0.3,   -0.2,   -0.6,   -0.4,   -0.0,   -0.1,   -0.0,   -0.0,   -0.2,   -0.2,    0.2,    0.3,    0.5,    0.1,    0.6,    0.9,    1.1,    0.8,    0.3,  999.0,  999.0,  999.0,  999.0,  999.0,  999.0,  999.0,  999.0,  999.0,  999.0,  999.0,  999.0,  999.0,  999.0,  999.0,  999.0,  999.0,  999.0,  999.0
1993/08/07 20:50,    0.2,    0.2,    0.6,    0.9,  999.0,    0.9,    1.0,    0.7,    0.5,    0.1,   -0.2,   -0.4,   -0.6,   -0.4,   -0.5,   -0.1,   -0.1,    0.1,   -0.0,   -0.3,   -0.4,   -0.9,   -1.2,   -1.9,   -1.8,   -2.0,   -1.8,   -1.4,   -1.1,   -1.1,   -1.1,   -0.7,   -0.9,   -0.7,    0.0,   -0.7,   -0.4,   -0.5,  999.0,  999.0,  999.0,  999.0,  999.0,  999.0,  999.0,  999.0,  999.0,  999.0,  999.0,  999.0,  999.0,  999.0,  999.0,  999.0,  999.0,  999.0,  999.0,  999.0
1993/08/07 21:00,    0.3,    0.6,    0.1,   -2.0,   -2.3,   -0.8,   -1.8,   -3.2,   -1.9,   -0.8,    0.3,   -0.1,   -0.2,    0.0,    0.3,   -0.5,   -0.1,   -0.1,    0.4,   -0.4,   -0.6,   -1.1,   -1.6,   -1.8,   -2.9,   -2.1,   -2.2,   -2.3,   -2.6,   -2.0,   -1.5,   -1.8,   -1.1,   -1.1,   -1.0,   -1.1,   -1.3,   -0.9,  999.0,   -1.8,  999.0,  999.0,  999.0,  999.0,  999.0,  999.0,  999.0,  999.0,  999.0,  999.0,  999.0,    1.2,  999.0,  999.0,  999.0,  999.0,    1.1,  999.0
1993/08/07 21:10,  999.0,   -0.3,  999.0,    0.0,   -0.5,   -0.2,   -0.1,    0.1,    0.1,   -0.4,    0.0,    0.4,    0.5,    0.6,    0.0,   -2.2,   -2.6,   -3.0,   -3.7,   -3.8,   -3.6,   -3.4,   -2.6,   -2.1,   -1.5,   -1.1,   -1.4,   -3.3,   -2.8,  999.0,   -0.3,  999.0,  999.0,   -0.2,   -0.3,   -0.5,   -0.6,   -0.1,  999.0,  999.0,  999.0,  999.0,  999.0,  999.0,  999.0,  999.0,  999.0,  999.0,  999.0,  999.0,  999.0,  999.0,  999.0,  999.0,  999.0,  999.0,    0.2,  999.0
1993/08/07 21:20,   -0.2,   -0.4,   -0.2,   -0.5,   -0.5,    0.8,    0.6,    1.1,   -0.1,    0.9,   -0.1,   -0.2,   -0.5,   -0.5,   -0.3,    0.0,    0.5,   -0.4,   -0.1,   -0.8,   -0.9,   -0.6,   -0.6,   -0.0,    0.1,    0.2,   -0.3,    0.2,    0.2,    0.4,    0.1,    0.1,   -0.3,   -0.3,   -0.1,   -0.2,   -0.5,   -0.3,   -0.5,   -0.5,   -0.2,  999.0,  999.0,  999.0,  999.0,    1.4,  999.0,  999.0,  999.0,  999.0,  999.0,  999.0,  999.0,  999.0,  999.0,  999.0,  999.0,    1.5
1993/08/07 21:30,   -0.1,   -1.1,    0.6,    0.3,   -0.3,    0.2,    0.1,    0.2,    0.1,    0.0,    0.1,    0.1,   -0.1,   -0.2,   -0.3,   -0.5,   -0.5,   -0.5,   -0.4,   -0.3,   -0.2,   -0.1,    0.0,   -0.2,   -0.0,   -0.2,   -0.1,   -0.2,    0.0,   -0.1,   -0.1,    0.7,   -0.0,   -0.4,   -0.3,   -0.3,   -0.4,   -0.4,   -0.4,   -0.0,   -0.1,   -0.8,  999.0,  999.0,  999.0,  999.0,  999.0,  999.0,  999.0,  999.0,  999.0,  999.0,   -0.7,  999.0,  999.0,  999.0,  999.0,  999.0
1993/08/07 21:40,    0.7,  999.0,    0.1,   -0.4,    0.3,   -0.0,   -0.1,   -0.4,   -0.6,   -0.4,   -0.5,   -0.6,   -0.6,   -0.6,   -0.6,   -0.7,   -1.0,   -0.7,   -0.5,   -0.3,   -0.1,   -0.4,   -0.0,   -0.2,    0.0,    0.1,    0.2,    0.2,    0.1,    0.2,    0.1,   -0.0,    0.2,   -0.0,   -0.0,    0.1,    0.3,    0.0,    0.2,    0.1,  999.0,    0.6,    0.1,    0.0,  999.0,    0.6,  999.0,  999.0,  999.0,  999.0,  999.0,  999.0,  999.0,  999.0,  999.0,  999.0,  999.0,  999.0
1993/08/07 21:50,   -0.2,   -0.4,   -0.5,   -0.3,   -0.0,   -0.0,    0.4,    0.1,    0.5,   -0.1,   -0.1,   -0.3,   -0.4,   -0.3,   -0.1,   -0.4,    0.0,    0.1,   -0.1,    0.1,   -0.0,    0.0,    0.2,    0.1,    0.1,    0.2,    0.1,    0.1,   -0.2,   -0.3,   -0.1,   -0.2,   -0.1,   -0.1,   -0.2,   -0.3,   -0.4,   -0.6,   -0.4,   -0.3,   -0.4,   -0.2,    0.0,    0.2,   -0.1,  999.0,  999.0,  999.0,  999.0,  999.0,   -0.0,  999.0,  999.0,  999.0,  999.0,  999.0,  999.0,   -0.2
1993/08/07 22:00,   -0.0,  999.0,    0.0,    0.0,    0.2,    0.1,    0.1,    0.3,    0.2,    0.0,    0.2,    0.1,   -0.1,   -0.2,   -0.1,   -0.1,   -0.2,   -0.6,   -0.4,  999.0,   -0.5,   -0.6,   -0.4,   -0.4,   -0.4,   -0.5,   -0.5,   -0.5,   -0.5,   -0.8,   -0.5,   -0.4,   -0.4,   -0.3,   -0.2,   -0.1,   -0.0,   -0.0,    0.1,   -0.0,    0.1,    0.1,    0.2,  999.0,  999.0,  999.0,  999.0,    0.1,  999.0,  999.0,  999.0,  999.0,  999.0,  999.0,  999.0,  999.0,  999.0,  999.0
1993/08/07 22:10,    0.1,    0.3,    0.3,    0.4,    0.3,    0.1,    0.1,    0.5,    0.6,    0.7,    0.3,    0.3,    0.2,    0.3,    0.1,   -0.0,   -0.2,   -0.2,   -0.4,   -0.2,   -0.3,   -0.6,   -0.5,   -0.4,   -0.6,   -0.6,   -0.6,   -0.4,  999.0,   -0.2,   -0.4,  999.0,   -0.4,   -0.1,   -0.1,   -0.1,   -0.2,   -0.3,   -0.1,   -0.3,    0.0,    0.0,  999.0,  999.0,  999.0,  999.0,  999.0,  999.0,  999.0,  999.0,  999.0,  999.0,  999.0,  999.0,  999.0,  999.0,    0.1,   -0.0
1993/08/07 22:20,   -0.4,   -0.2,   -0.1,   -0.1,   -0.1,    0.2,    0.1,    0.3,    0.1,    0.1,   -0.3,   -0.1,   -0.0,    0.2,    0.3,    0.2,    0.2,   -0.1,   -0.2,   -0.2,   -0.3,   -0.3,   -0.3,   -0.4,   -0.6,  999.0,  999.0,  999.0,    0.1,  999.0,  999.0,  999.0,  999.0,   -0.2,   -0.2,  999.0,  999.0,  999.0,   -0.4,   -0.3,   -0.2,   -0.2,    0.3,  999.0,  999.0,  999.0,  999.0,  999.0,  999.0,  999.0,  999.0,  999.0,  999.0,  999.0,  999.0,  999.0,  999.0,  999.0
1993/08/07 22:30,    0.1,    0.3,    0.5,    0.3,    0.2,    0.2,    0.1,    0.2,   -0.0,   -0.2,    0.2,    0.1,    0.0,   -0.0,    1.2,   -0.4,   -0.1,   -0.3,   -0.2,   -0.2,   -0.1,   -0.2,   -0.2,  999.0,   -0.3,  999.0,  999.0,  999.0,  999.0,    0.1,    0.1,  999.0,  999.0,  999.0,  999.0,  999.0,  999.0,  999.0,  999.0,   -0.1,    0.3,    0.3,    0.4,  999.0,  999.0,  999.0,  999.0,  999.0,  999.0,  999.0,  999.0,  999.0,  999.0,  999.0,  999.0,  999.0,  999.0,  999.0
1993/08/07 22:40,   -0.3,   -0.6,   -0.0,    0.3,   -0.1,   -0.3,   -0.3,   -0.2,   -0.1,   -0.5,    0.1,   -0.4,   -0.5,   -0.7,   -0.5,   -0.4,   -0.1,   -0.1,   -0.2,   -0.3,   -0.0,   -0.2,    0.0,  999.0,  999.0,  999.0,  999.0,  999.0,  999.0,   -0.2,  999.0,  999.0,  999.0,  999.0,  999.0,  999.0,    0.2,  999.0,   -0.1,   -0.2,  999.0,  999.0,  999.0,  999.0,    0.1,  999.0,   -0.1,   -0.1,  999.0,   -0.1,  999.0,  999.0,  999.0,   -0.1,   -0.1,  999.0,  999.0,   -0.1
1993/08/07 22:50,   -0.3,   -0.5,  999.0,   -0.9,   -0.6,   -0.7,   -0.7,   -0.8,   -0.7,   -0.5,   -0.4,   -0.5,   -0.8,   -0.7,   -0.7,   -0.6,   -0.6,   -0.5,   -0.4,   -0.4,   -0.3,   -0.3,  999.0,  999.0,  999.0,  999.0,  999.0,  999.0,    0.1,  999.0,  999.0,  999.0,  999.0,  999.0,  999.0,  999.0,  999.0,  999.0,  999.0,   -0.1,  999.0,  999.0,   -0.1,  999.0,  999.0,   -0.1,  999.0,  999.0,  999.0,  999.0,  999.0,  999.0,  999.0,  999.0,  999.0,  999.0,  999.0,   -0.1
1993/08/07 23:00,   -0.3,    0.1,    0.0,    0.0,    0.1,   -0.0,   -0.1,   -0.1,   -0.0,   -0.1,   -0.3,   -0.5,   -0.4,   -0.5,   -0.4,   -0.5,   -0.4,   -0.3,   -0.3,   -0.3,   -0.3,   -0.1,   -0.2,   -0.1,   -0.1,   -0.2,   -0.6,   -0.4,  999.0,  999.0,  999.0,  999.0,   -0.4,   -0.6,  999.0,  999.0,  999.0,   -0.1,  999.0,   -0.1,  999.0,  999.0,  999.0,  999.0,  999.0,  999.0,  999.0,  999.0,   -0.1,  999.0,  999.0,  999.0,   -0.2,  999.0,  999.0,  999.0,   -0.1,   -0.1
1993/08/07 23:10,   -0.2,   -0.2,   -0.2,   -0.3,   -0.2,    0.0,    0.0,   -0.1,   -0.0,   -0.2,   -0.0,    0.0,   -0.1,   -0.0,   -0.1,   -0.2,   -0.2,   -0.2,   -0.3,   -0.1,   -0.4,   -0.2,  999.0,   -0.1,   -0.0,   -0.0,  999.0,  999.0,  999.0,  999.0,   -0.3,   -0.2,   -0.4,  999.0,  999.0,  999.0,  999.0,  999.0,  999.0,  999.0,    0.4,  999.0,  999.0,  999.0,   -0.1,  999.0,  999.0,  999.0,  999.0,  999.0,   -0.1,  999.0,  999.0,   -0.1,  999.0,   -0.1,  999.0,   -0.1
1993/08/07 23:20,    0.1,    0.2,    0.6,    0.3,    0.2,    0.4,    0.6,    0.4,    0.3,    0.2,    0.2,    0.1,   -0.1,    0.1,    0.1,    0.1,    0.2,    0.2,    0.3,    0.1,    0.1,  999.0,  999.0,    0.1,    0.2,  999.0,  999.0,  999.0,  999.0,  999.0,  999.0,    0.2,  999.0,  999.0,  999.0,  999.0,  999.0,  999.0,  999.0,  999.0,  999.0,  999.0,  999.0,  999.0,  999.0,  999.0,  999.0,  999.0,  999.0,  999.0,  999.0,  999.0,   -0.2,  999.0,   -0.1,  999.0,  999.0,  999.0
1993/08/07 23:30,    0.2,   -0.1,   -0.0,   -0.1,   -0.0,    0.0,    0.2,   -0.0,   -0.1,   -0.3,   -0.3,   -0.3,   -0.2,   -0.3,   -0.2,   -0.3,   -0.3,   -0.3,   -0.3,   -0.4,   -0.3,   -0.1,   -0.2,   -0.3,  999.0,    0.4,   -0.3,   -0.1,  999.0,    0.1,  999.0,  999.0,  999.0,  999.0,  999.0,  999.0,  999.0,  999.0,  999.0,  999.0,  999.0,  999.0,  999.0,   -0.6,  999.0,  999.0,  999.0,  999.0,  999.0,  999.0,  999.0,  999.0,  999.0,  999.0,  999.0,   -1.0,  999.0,  999.0
1993/08/07 23:40,    0.3,    0.4,   -0.1,    0.0,   -0.0,   -0.1,   -0.0,   -0.0,   -0.2,   -0.1,    0.0,    0.2,    0.1,   -0.0,    0.1,    0.1,    0.0,   -0.0,   -0.3,    0.0,   -0.1,   -0.1,   -0.1,   -0.1,    0.1,  999.0,  999.0,    0.1,  999.0,    0.0,  999.0,  999.0,  999.0,  999.0,  999.0,   -0.1,  999.0,  999.0,  999.0,  999.0,  999.0,  999.0,  999.0,  999.0,  999.0,    0.2,  999.0,  999.0,  999.0,  999.0,  999.0,  999.0,  999.0,  999.0,  999.0,  999.0,  999.0,  999.0
1993/08/07 23:50,    0.2,    0.2,   -0.1,   -0.2,   -0.2,   -0.1,   -0.1,   -0.1,   -0.2,   -0.2,    0.1,    0.0,    0.2,  999.0,   -0.1,   -0.2,    0.1,    0.3,    0.2,  999.0,   -0.0,   -0.1,    0.1,  999.0,    0.0,  999.0,  999.0,  999.0,  999.0,  999.0,  999.0,  999.0,  999.0,  999.0,  999.0,  999.0,  999.0,  999.0,  999.0,  999.0,    0.2,   -0.2,  999.0,  999.0,  999.0,  999.0,  999.0,  999.0,  999.0,  999.0,  999.0,  999.0,  999.0,  999.0,  999.0,  999.0,  999.0,  999.0
